Time,TemperatureF,DewpointF,PressureIn,WindDirection,WindDirectionDegrees,WindSpeedMPH,WindSpeedGustMPH,Humidity,HourlyPrecipIn,Conditions,Clouds,dailyrainin,SoftwareType,DateUTC
2013-05-07 00:00:00,52.2,42.0,29.96,NNE,27,0.0,2.0,68,0.00,,CLR,0.00,VWS V12.07,2013-05-07 05:00:00,
2013-05-07 00:03:00,52.0,41.8,29.96,NNE,27,1.0,2.0,68,0.00,,CLR,0.00,VWS V12.07,2013-05-07 05:03:00,
2013-05-07 00:04:00,52.0,41.8,29.96,NNE,27,0.0,2.0,68,0.00,,CLR,0.00,VWS V12.07,2013-05-07 05:04:00,
2013-05-07 00:05:00,52.0,41.8,29.96,NNE,27,0.0,2.0,68,0.00,,CLR,0.00,VWS V12.07,2013-05-07 05:05:00,
2013-05-07 00:08:00,51.9,41.7,29.96,NNE,27,1.0,2.0,68,0.00,,CLR,0.00,VWS V12.07,2013-05-07 05:08:00,
2013-05-07 00:09:00,51.7,41.5,29.96,NNE,27,0.0,1.0,68,0.00,,CLR,0.00,VWS V12.07,2013-05-07 05:09:00,
2013-05-07 00:10:00,51.6,41.8,29.96,NNE,27,1.0,2.0,69,0.00,,CLR,0.00,VWS V12.07,2013-05-07 05:10:00,
2013-05-07 00:11:00,51.6,41.8,29.96,NNE,27,1.0,2.0,69,0.00,,CLR,0.00,VWS V12.07,2013-05-07 05:11:00,
2013-05-07 00:13:00,51.1,41.3,29.96,NNE,27,0.0,2.0,69,0.00,,CLR,0.00,VWS V12.07,2013-05-07 05:13:00,
2013-05-07 00:14:00,51.0,41.6,29.96,NNE,27,1.0,2.0,70,0.00,,CLR,0.00,VWS V12.07,2013-05-07 05:14:00,
2013-05-07 00:16:00,50.8,41.4,29.96,NNE,27,1.0,2.0,70,0.00,,CLR,0.00,VWS V12.07,2013-05-07 05:16:00,
2013-05-07 00:18:00,50.4,41.4,29.96,NNE,27,1.0,2.0,71,0.00,,CLR,0.00,VWS V12.07,2013-05-07 05:18:00,
2013-05-07 00:19:00,50.4,41.4,29.96,NNE,27,1.0,2.0,71,0.00,,CLR,0.00,VWS V12.07,2013-05-07 05:19:00,
2013-05-07 00:20:00,50.2,41.2,29.96,NNE,27,1.0,2.0,71,0.00,,CLR,0.00,VWS V12.07,2013-05-07 05:20:00,
2013-05-07 00:21:00,50.2,41.5,29.96,NNE,27,0.0,2.0,72,0.00,,CLR,0.00,VWS V12.07,2013-05-07 05:21:00,
2013-05-07 00:24:00,50.2,41.5,29.96,NNE,27,1.0,2.0,72,0.00,,CLR,0.00,VWS V12.07,2013-05-07 05:24:00,
2013-05-07 00:25:00,50.2,41.5,29.96,NNE,27,0.0,2.0,72,0.00,,CLR,0.00,VWS V12.07,2013-05-07 05:25:00,
2013-05-07 00:26:00,50.2,41.5,29.96,NNE,26,1.0,2.0,72,0.00,,CLR,0.00,VWS V12.07,2013-05-07 05:26:00,
2013-05-07 00:27:00,50.1,41.4,29.96,NNE,27,1.0,2.0,72,0.00,,CLR,0.00,VWS V12.07,2013-05-07 05:27:00,
2013-05-07 00:29:00,49.9,41.2,29.97,NNE,27,0.0,2.0,72,0.00,,CLR,0.00,VWS V12.07,2013-05-07 05:29:00,
2013-05-07 00:31:00,49.9,41.2,29.97,NNE,27,1.0,2.0,72,0.00,,CLR,0.00,VWS V12.07,2013-05-07 05:31:00,
2013-05-07 00:32:00,49.9,41.2,29.97,NNE,27,0.0,2.0,72,0.00,,CLR,0.00,VWS V12.07,2013-05-07 05:32:00,
2013-05-07 00:33:00,49.9,41.2,29.97,NNE,27,0.0,2.0,72,0.00,,CLR,0.00,VWS V12.07,2013-05-07 05:33:00,
2013-05-07 00:35:00,49.8,41.2,29.97,NNE,27,1.0,2.0,72,0.00,,CLR,0.00,VWS V12.07,2013-05-07 05:35:00,
2013-05-07 00:36:00,49.8,41.2,29.97,NNE,27,0.0,2.0,72,0.00,,CLR,0.00,VWS V12.07,2013-05-07 05:36:00,
2013-05-07 00:37:00,49.6,41.3,29.97,NNE,27,0.0,2.0,73,0.00,,CLR,0.00,VWS V12.07,2013-05-07 05:37:00,
2013-05-07 00:39:00,49.6,41.3,29.97,NNE,27,0.0,2.0,73,0.00,,CLR,0.00,VWS V12.07,2013-05-07 05:39:00,
2013-05-07 00:40:00,49.5,41.2,29.97,NNE,27,0.0,2.0,73,0.00,,CLR,0.00,VWS V12.07,2013-05-07 05:40:00,
2013-05-07 00:41:00,49.5,41.2,29.97,NNE,27,0.0,2.0,73,0.00,,CLR,0.00,VWS V12.07,2013-05-07 05:41:00,
2013-05-07 00:43:00,49.5,41.2,29.97,NNE,27,0.0,2.0,73,0.00,,CLR,0.00,VWS V12.07,2013-05-07 05:43:00,
2013-05-07 00:44:00,49.5,41.2,29.97,NNE,27,0.0,2.0,73,0.00,,CLR,0.00,VWS V12.07,2013-05-07 05:44:00,
2013-05-07 00:45:00,49.5,41.2,29.97,NNE,27,1.0,2.0,73,0.00,,CLR,0.00,VWS V12.07,2013-05-07 05:45:00,
2013-05-07 00:46:00,49.8,41.5,29.97,NNE,27,1.0,2.0,73,0.00,,CLR,0.00,VWS V12.07,2013-05-07 05:46:00,
2013-05-07 00:47:00,49.8,41.2,29.97,NNE,27,0.0,2.0,72,0.00,,CLR,0.00,VWS V12.07,2013-05-07 05:47:00,
2013-05-07 00:48:00,49.9,40.9,29.97,NNE,27,0.0,2.0,71,0.00,,CLR,0.00,VWS V12.07,2013-05-07 05:48:00,
2013-05-07 00:49:00,50.1,41.1,29.97,NNE,27,0.0,2.0,71,0.00,,CLR,0.00,VWS V12.07,2013-05-07 05:49:00,
2013-05-07 00:50:00,50.2,41.2,29.97,NNE,26,1.0,2.0,71,0.00,,CLR,0.00,VWS V12.07,2013-05-07 05:50:00,
2013-05-07 00:51:00,50.4,41.4,29.97,NNE,27,0.0,2.0,71,0.00,,CLR,0.00,VWS V12.07,2013-05-07 05:51:00,
2013-05-07 00:52:00,50.4,41.4,29.97,NNE,26,0.0,2.0,71,0.00,,CLR,0.00,VWS V12.07,2013-05-07 05:52:00,
2013-05-07 00:53:00,50.5,41.1,29.97,NNE,27,1.0,2.0,70,0.00,,CLR,0.00,VWS V12.07,2013-05-07 05:53:00,
2013-05-07 00:54:00,50.7,41.3,29.97,NNE,27,1.0,2.0,70,0.00,,CLR,0.00,VWS V12.07,2013-05-07 05:54:00,
2013-05-07 00:55:00,50.8,41.4,29.97,NNE,27,1.0,2.0,70,0.00,,CLR,0.00,VWS V12.07,2013-05-07 05:55:00,
2013-05-07 00:56:00,50.8,41.4,29.97,NNE,27,1.0,2.0,70,0.00,,CLR,0.00,VWS V12.07,2013-05-07 05:56:00,
2013-05-07 00:57:00,50.8,41.4,29.97,NNE,27,1.0,2.0,70,0.00,,CLR,0.00,VWS V12.07,2013-05-07 05:57:00,
2013-05-07 00:59:00,51.0,41.6,29.96,NNE,27,0.0,2.0,70,0.00,,CLR,0.00,VWS V12.07,2013-05-07 05:59:00,
2013-05-07 01:00:00,51.0,41.2,29.96,NNE,26,1.0,2.0,69,0.00,,CLR,0.00,VWS V12.07,2013-05-07 06:00:00,
2013-05-07 01:02:00,51.0,41.6,29.96,NNE,26,1.0,2.0,70,0.00,,CLR,0.00,VWS V12.07,2013-05-07 06:02:00,
2013-05-07 01:04:00,51.0,41.6,29.96,NNE,27,1.0,0.0,70,0.00,,CLR,0.00,VWS V12.07,2013-05-07 06:04:00,
2013-05-07 01:06:00,51.0,41.6,29.96,NNE,27,0.0,2.0,70,0.00,,CLR,0.00,VWS V12.07,2013-05-07 06:06:00,
2013-05-07 01:07:00,50.8,41.4,29.96,NNE,27,0.0,2.0,70,0.00,,CLR,0.00,VWS V12.07,2013-05-07 06:07:00,
2013-05-07 01:09:00,50.5,40.7,29.96,NNE,27,0.0,1.0,69,0.00,,CLR,0.00,VWS V12.07,2013-05-07 06:09:00,
2013-05-07 01:10:00,50.4,40.6,29.96,NNE,27,0.0,1.0,69,0.00,,CLR,0.00,VWS V12.07,2013-05-07 06:10:00,
2013-05-07 01:11:00,50.1,40.0,29.96,NNE,27,0.0,1.0,68,0.00,,CLR,0.00,VWS V12.07,2013-05-07 06:11:00,
2013-05-07 01:12:00,49.6,39.9,29.96,NNE,27,0.0,1.0,69,0.00,,CLR,0.00,VWS V12.07,2013-05-07 06:12:00,
2013-05-07 01:14:00,48.9,39.6,29.96,NNE,27,0.0,1.0,70,0.00,,CLR,0.00,VWS V12.07,2013-05-07 06:14:00,
2013-05-07 01:15:00,48.6,39.3,29.96,NNE,27,0.0,0.0,70,0.00,,CLR,0.00,VWS V12.07,2013-05-07 06:15:00,
2013-05-07 01:16:00,48.5,39.2,29.96,NNE,27,0.0,0.0,70,0.00,,CLR,0.00,VWS V12.07,2013-05-07 06:16:00,
2013-05-07 01:17:00,48.2,39.6,29.96,NNE,27,0.0,0.0,72,0.00,,CLR,0.00,VWS V12.07,2013-05-07 06:17:00,
2013-05-07 01:20:00,47.6,40.1,29.96,NNE,27,1.0,2.0,75,0.00,,CLR,0.00,VWS V12.07,2013-05-07 06:20:00,
2013-05-07 01:21:00,47.6,40.1,29.96,NNE,26,1.0,2.0,75,0.00,,CLR,0.00,VWS V12.07,2013-05-07 06:21:00,
2013-05-07 01:22:00,47.6,40.4,29.96,NNE,27,1.0,2.0,76,0.00,,CLR,0.00,VWS V12.07,2013-05-07 06:22:00,
2013-05-07 01:25:00,47.4,40.2,29.96,NNE,27,0.0,2.0,76,0.00,,CLR,0.00,VWS V12.07,2013-05-07 06:25:00,
2013-05-07 01:27:00,47.3,40.1,29.96,NNE,27,0.0,2.0,76,0.00,,CLR,0.00,VWS V12.07,2013-05-07 06:27:00,
2013-05-07 01:28:00,47.3,40.1,29.96,NNE,26,0.0,2.0,76,0.00,,CLR,0.00,VWS V12.07,2013-05-07 06:28:00,
2013-05-07 01:30:00,47.0,39.8,29.97,NNE,27,0.0,1.0,76,0.00,,CLR,0.00,VWS V12.07,2013-05-07 06:30:00,
2013-05-07 01:32:00,46.8,39.7,29.97,NNE,27,0.0,1.0,76,0.00,,CLR,0.00,VWS V12.07,2013-05-07 06:32:00,
2013-05-07 01:33:00,46.7,39.5,29.97,NNE,27,0.0,1.0,76,0.00,,CLR,0.00,VWS V12.07,2013-05-07 06:33:00,
2013-05-07 01:35:00,46.4,39.3,29.97,NNE,27,0.0,1.0,76,0.00,,CLR,0.00,VWS V12.07,2013-05-07 06:35:00,
2013-05-07 01:37:00,46.4,39.3,29.97,NNE,27,0.0,1.0,76,0.00,,CLR,0.00,VWS V12.07,2013-05-07 06:37:00,
2013-05-07 01:38:00,46.2,39.4,29.97,NNE,27,0.0,1.0,77,0.00,,CLR,0.00,VWS V12.07,2013-05-07 06:38:00,
2013-05-07 01:41:00,46.0,39.9,29.97,NNE,27,0.0,0.0,79,0.00,,CLR,0.00,VWS V12.07,2013-05-07 06:41:00,
2013-05-07 01:42:00,46.0,39.9,29.97,NNE,27,2.0,2.0,79,0.00,,CLR,0.00,VWS V12.07,2013-05-07 06:42:00,
2013-05-07 01:43:00,46.0,40.2,29.97,NNE,27,2.0,2.0,80,0.00,,CLR,0.00,VWS V12.07,2013-05-07 06:43:00,
2013-05-07 01:47:00,46.4,40.2,29.96,NNE,27,2.0,2.0,79,0.00,,CLR,0.00,VWS V12.07,2013-05-07 06:47:00,
2013-05-07 01:48:00,46.5,40.3,29.96,NNE,27,1.0,2.0,79,0.00,,CLR,0.00,VWS V12.07,2013-05-07 06:48:00,
2013-05-07 01:49:00,46.7,40.2,29.96,NNE,27,1.0,2.0,78,0.00,,CLR,0.00,VWS V12.07,2013-05-07 06:49:00,
2013-05-07 01:53:00,47.0,40.2,29.96,NNE,27,0.0,2.0,77,0.00,,CLR,0.00,VWS V12.07,2013-05-07 06:53:00,
2013-05-07 01:54:00,46.8,40.0,29.96,NNE,27,0.0,2.0,77,0.00,,CLR,0.00,VWS V12.07,2013-05-07 06:54:00,
2013-05-07 01:58:00,46.7,39.9,29.96,NNE,27,0.0,2.0,77,0.00,,CLR,0.00,VWS V12.07,2013-05-07 06:58:00,
2013-05-07 01:59:00,46.5,39.7,29.96,NNE,27,0.0,1.0,77,0.00,,CLR,0.00,VWS V12.07,2013-05-07 06:59:00,
2013-05-07 02:03:00,46.2,39.7,29.96,NNE,27,1.0,2.0,78,0.00,,CLR,0.00,VWS V12.07,2013-05-07 07:03:00,
2013-05-07 02:04:00,46.1,39.6,29.96,NNE,27,0.0,2.0,78,0.00,,CLR,0.00,VWS V12.07,2013-05-07 07:04:00,
2013-05-07 02:05:00,46.1,39.6,29.96,NNE,27,0.0,2.0,78,0.00,,CLR,0.00,VWS V12.07,2013-05-07 07:05:00,
2013-05-07 02:06:00,46.1,39.6,29.96,NNE,27,0.0,2.0,78,0.00,,CLR,0.00,VWS V12.07,2013-05-07 07:06:00,
2013-05-07 02:08:00,45.8,39.3,29.96,NNE,27,0.0,2.0,78,0.00,,CLR,0.00,VWS V12.07,2013-05-07 07:08:00,
2013-05-07 02:10:00,45.7,39.2,29.96,NNE,27,0.0,2.0,78,0.00,,CLR,0.00,VWS V12.07,2013-05-07 07:10:00,
2013-05-07 02:11:00,45.7,39.2,29.96,NNE,27,0.0,2.0,78,0.00,,CLR,0.00,VWS V12.07,2013-05-07 07:11:00,
2013-05-07 02:13:00,45.5,39.0,29.96,NNE,27,0.0,2.0,78,0.00,,CLR,0.00,VWS V12.07,2013-05-07 07:13:00,
2013-05-07 02:14:00,45.5,39.0,29.96,NNE,27,0.0,2.0,78,0.00,,CLR,0.00,VWS V12.07,2013-05-07 07:14:00,
2013-05-07 02:15:00,45.5,39.4,29.96,NNE,27,0.0,2.0,79,0.00,,CLR,0.00,VWS V12.07,2013-05-07 07:15:00,
2013-05-07 02:16:00,45.5,39.4,29.96,NNE,27,0.0,2.0,79,0.00,,CLR,0.00,VWS V12.07,2013-05-07 07:16:00,
2013-05-07 02:19:00,45.5,39.0,29.96,NNE,27,1.0,2.0,78,0.00,,CLR,0.00,VWS V12.07,2013-05-07 07:19:00,
2013-05-07 02:20:00,45.5,39.4,29.96,NNE,27,1.0,2.0,79,0.00,,CLR,0.00,VWS V12.07,2013-05-07 07:20:00,
2013-05-07 02:22:00,45.7,39.6,29.96,NNE,27,1.0,3.0,79,0.00,,CLR,0.00,VWS V12.07,2013-05-07 07:22:00,
2013-05-07 02:24:00,45.8,39.7,29.96,NNE,26,1.0,3.0,79,0.00,,CLR,0.00,VWS V12.07,2013-05-07 07:24:00,
2013-05-07 02:26:00,46.0,39.5,29.96,NNE,27,1.0,2.0,78,0.00,,CLR,0.00,VWS V12.07,2013-05-07 07:26:00,
2013-05-07 02:27:00,46.2,39.7,29.96,NNE,26,1.0,2.0,78,0.00,,CLR,0.00,VWS V12.07,2013-05-07 07:27:00,
2013-05-07 02:28:00,46.2,39.4,29.96,NNE,27,1.0,2.0,77,0.00,,CLR,0.00,VWS V12.07,2013-05-07 07:28:00,
2013-05-07 02:29:00,46.2,39.4,29.95,NNE,27,2.0,2.0,77,0.00,,CLR,0.00,VWS V12.07,2013-05-07 07:29:00,
2013-05-07 02:30:00,46.2,39.4,29.95,NNE,27,1.0,2.0,77,0.00,,CLR,0.00,VWS V12.07,2013-05-07 07:30:00,
2013-05-07 02:31:00,46.4,39.9,29.95,NNE,27,1.0,2.0,78,0.00,,CLR,0.00,VWS V12.07,2013-05-07 07:31:00,
2013-05-07 02:33:00,46.5,39.7,29.95,NNE,27,0.0,2.0,77,0.00,,CLR,0.00,VWS V12.07,2013-05-07 07:33:00,
2013-05-07 02:34:00,46.7,39.5,29.95,NNE,27,0.0,2.0,76,0.00,,CLR,0.00,VWS V12.07,2013-05-07 07:34:00,
2013-05-07 02:35:00,46.7,39.5,29.95,NNE,26,1.0,2.0,76,0.00,,CLR,0.00,VWS V12.07,2013-05-07 07:35:00,
2013-05-07 02:36:00,46.7,39.5,29.95,NNE,27,0.0,2.0,76,0.00,,CLR,0.00,VWS V12.07,2013-05-07 07:36:00,
2013-05-07 02:38:00,46.7,39.5,29.95,NNE,27,0.0,2.0,76,0.00,,CLR,0.00,VWS V12.07,2013-05-07 07:38:00,
2013-05-07 02:39:00,46.7,39.2,29.95,NNE,27,0.0,1.0,75,0.00,,CLR,0.00,VWS V12.07,2013-05-07 07:39:00,
2013-05-07 02:40:00,46.5,38.7,29.95,NNE,27,0.0,1.0,74,0.00,,CLR,0.00,VWS V12.07,2013-05-07 07:40:00,
2013-05-07 02:42:00,46.4,38.6,29.95,NNE,27,0.0,2.0,74,0.00,,CLR,0.00,VWS V12.07,2013-05-07 07:42:00,
2013-05-07 02:43:00,46.1,39.0,29.95,NNE,27,0.0,2.0,76,0.00,,CLR,0.00,VWS V12.07,2013-05-07 07:43:00,
2013-05-07 02:45:00,45.8,38.7,29.95,NNE,27,0.0,2.0,76,0.00,,CLR,0.00,VWS V12.07,2013-05-07 07:45:00,
2013-05-07 02:47:00,45.4,38.3,29.95,NNE,26,0.0,2.0,76,0.00,,CLR,0.00,VWS V12.07,2013-05-07 07:47:00,
2013-05-07 02:48:00,45.1,38.0,29.95,NNE,27,0.0,2.0,76,0.00,,CLR,0.00,VWS V12.07,2013-05-07 07:48:00,
2013-05-07 02:49:00,44.9,38.1,29.95,NNE,27,2.0,2.0,77,0.00,,CLR,0.00,VWS V12.07,2013-05-07 07:49:00,
2013-05-07 02:50:00,44.8,38.4,29.95,NNE,27,0.0,2.0,78,0.00,,CLR,0.00,VWS V12.07,2013-05-07 07:50:00,
2013-05-07 02:53:00,44.9,39.1,29.95,NNE,27,1.0,4.0,80,0.00,,CLR,0.00,VWS V12.07,2013-05-07 07:53:00,
2013-05-07 02:54:00,45.1,39.0,29.95,NNE,27,2.0,4.0,79,0.00,,CLR,0.00,VWS V12.07,2013-05-07 07:54:00,
2013-05-07 02:55:00,45.4,38.6,29.95,NNE,27,2.0,4.0,77,0.00,,CLR,0.00,VWS V12.07,2013-05-07 07:55:00,
2013-05-07 02:56:00,45.5,38.7,29.95,NNE,27,2.0,4.0,77,0.00,,CLR,0.00,VWS V12.07,2013-05-07 07:56:00,
2013-05-07 02:58:00,46.1,39.3,29.95,NNE,27,1.0,4.0,77,0.00,,CLR,0.00,VWS V12.07,2013-05-07 07:58:00,
2013-05-07 02:59:00,46.4,39.3,29.95,NNE,27,1.0,3.0,76,0.00,,CLR,0.00,VWS V12.07,2013-05-07 07:59:00,
2013-05-07 03:00:00,46.7,39.5,29.95,NNE,25,2.0,4.0,76,0.00,,CLR,0.00,VWS V12.07,2013-05-07 08:00:00,
2013-05-07 03:01:00,47.0,39.5,29.95,NNE,25,2.0,4.0,75,0.00,,CLR,0.00,VWS V12.07,2013-05-07 08:01:00,
2013-05-07 03:03:00,47.7,39.5,29.95,NNE,25,2.0,4.0,73,0.00,,CLR,0.00,VWS V12.07,2013-05-07 08:03:00,
2013-05-07 03:04:00,48.3,39.3,29.95,NNE,25,1.0,4.0,71,0.00,,CLR,0.00,VWS V12.07,2013-05-07 08:04:00,
2013-05-07 03:05:00,48.5,39.5,29.95,NNE,25,2.0,4.0,71,0.00,,CLR,0.00,VWS V12.07,2013-05-07 08:05:00,
2013-05-07 03:06:00,48.6,39.6,29.95,NNE,25,2.0,4.0,71,0.00,,CLR,0.00,VWS V12.07,2013-05-07 08:06:00,
2013-05-07 03:09:00,49.2,39.5,29.95,NNE,32,2.0,4.0,69,0.00,,CLR,0.00,VWS V12.07,2013-05-07 08:09:00,
2013-05-07 03:10:00,49.4,39.7,29.95,NNE,32,1.0,4.0,69,0.00,,CLR,0.00,VWS V12.07,2013-05-07 08:10:00,
2013-05-07 03:11:00,49.6,39.9,29.95,NNE,32,1.0,4.0,69,0.00,,CLR,0.00,VWS V12.07,2013-05-07 08:11:00,
2013-05-07 03:12:00,49.6,39.9,29.95,NNE,32,1.0,4.0,69,0.00,,CLR,0.00,VWS V12.07,2013-05-07 08:12:00,
2013-05-07 03:14:00,49.9,39.8,29.94,NNE,32,2.0,4.0,68,0.00,,CLR,0.00,VWS V12.07,2013-05-07 08:14:00,
2013-05-07 03:15:00,49.9,39.4,29.94,NNE,32,0.0,4.0,67,0.00,,CLR,0.00,VWS V12.07,2013-05-07 08:15:00,
2013-05-07 03:17:00,50.1,39.6,29.94,NNE,32,1.0,4.0,67,0.00,,CLR,0.00,VWS V12.07,2013-05-07 08:17:00,
2013-05-07 03:19:00,50.1,39.6,29.94,NNE,22,2.0,3.0,67,0.00,,CLR,0.00,VWS V12.07,2013-05-07 08:19:00,
2013-05-07 03:20:00,50.1,39.6,29.94,NNE,22,1.0,3.0,67,0.00,,CLR,0.00,VWS V12.07,2013-05-07 08:20:00,
2013-05-07 03:21:00,50.1,39.2,29.94,NNE,22,0.0,3.0,66,0.00,,CLR,0.00,VWS V12.07,2013-05-07 08:21:00,
2013-05-07 03:22:00,50.1,39.6,29.94,NNE,22,0.0,3.0,67,0.00,,CLR,0.00,VWS V12.07,2013-05-07 08:22:00,
2013-05-07 03:23:00,50.1,39.6,29.94,NNE,22,0.0,3.0,67,0.00,,CLR,0.00,VWS V12.07,2013-05-07 08:23:00,
2013-05-07 03:25:00,50.1,39.6,29.94,NNE,22,0.0,3.0,67,0.00,,CLR,0.00,VWS V12.07,2013-05-07 08:25:00,
2013-05-07 03:26:00,49.9,39.4,29.94,NNE,22,2.0,3.0,67,0.00,,CLR,0.00,VWS V12.07,2013-05-07 08:26:00,
2013-05-07 03:27:00,49.6,39.5,29.94,NNE,22,0.0,3.0,68,0.00,,CLR,0.00,VWS V12.07,2013-05-07 08:27:00,
2013-05-07 03:28:00,49.6,39.5,29.94,NNE,22,0.0,3.0,68,0.00,,CLR,0.00,VWS V12.07,2013-05-07 08:28:00,
2013-05-07 03:30:00,49.2,39.5,29.94,NNE,22,0.0,2.0,69,0.00,,CLR,0.00,VWS V12.07,2013-05-07 08:30:00,
2013-05-07 03:31:00,48.9,39.6,29.94,NNE,22,0.0,2.0,70,0.00,,CLR,0.00,VWS V12.07,2013-05-07 08:31:00,
2013-05-07 03:32:00,48.6,39.3,29.94,NNE,22,0.0,2.0,70,0.00,,CLR,0.00,VWS V12.07,2013-05-07 08:32:00,
2013-05-07 03:33:00,48.6,39.3,29.94,NNE,22,0.0,2.0,70,0.00,,CLR,0.00,VWS V12.07,2013-05-07 08:33:00,
2013-05-07 03:35:00,48.3,39.0,29.94,NNE,22,0.0,2.0,70,0.00,,CLR,0.00,VWS V12.07,2013-05-07 08:35:00,
2013-05-07 03:36:00,48.0,38.7,29.94,NNE,22,0.0,2.0,70,0.00,,CLR,0.00,VWS V12.07,2013-05-07 08:36:00,
2013-05-07 03:38:00,47.9,39.0,29.94,NNE,22,0.0,2.0,71,0.00,,CLR,0.00,VWS V12.07,2013-05-07 08:38:00,
2013-05-07 03:39:00,47.6,38.7,29.94,NNE,22,0.0,0.0,71,0.00,,CLR,0.00,VWS V12.07,2013-05-07 08:39:00,
2013-05-07 03:40:00,47.6,38.7,29.94,NNE,22,0.0,0.0,71,0.00,,CLR,0.00,VWS V12.07,2013-05-07 08:40:00,
2013-05-07 03:41:00,47.4,38.5,29.94,NNE,22,0.0,0.0,71,0.00,,CLR,0.00,VWS V12.07,2013-05-07 08:41:00,
2013-05-07 03:43:00,47.4,38.8,29.94,NNE,22,0.0,1.0,72,0.00,,CLR,0.00,VWS V12.07,2013-05-07 08:43:00,
2013-05-07 03:45:00,47.4,38.5,29.95,NNE,22,0.0,1.0,71,0.00,,CLR,0.00,VWS V12.07,2013-05-07 08:45:00,
2013-05-07 03:46:00,47.4,38.5,29.95,NNE,22,1.0,1.0,71,0.00,,CLR,0.00,VWS V12.07,2013-05-07 08:46:00,
2013-05-07 03:47:00,47.6,38.3,29.95,NNE,22,0.0,1.0,70,0.00,,CLR,0.00,VWS V12.07,2013-05-07 08:47:00,
2013-05-07 03:48:00,47.7,38.4,29.95,NNE,22,0.0,1.0,70,0.00,,CLR,0.00,VWS V12.07,2013-05-07 08:48:00,
2013-05-07 03:50:00,48.0,38.3,29.95,NNE,22,0.0,1.0,69,0.00,,CLR,0.00,VWS V12.07,2013-05-07 08:50:00,
2013-05-07 03:51:00,48.2,38.2,29.95,NNE,22,0.0,1.0,68,0.00,,CLR,0.00,VWS V12.07,2013-05-07 08:51:00,
2013-05-07 03:52:00,48.3,38.2,29.95,NNE,22,0.0,1.0,68,0.00,,CLR,0.00,VWS V12.07,2013-05-07 08:52:00,
2013-05-07 03:53:00,48.5,38.4,29.95,NNE,22,0.0,1.0,68,0.00,,CLR,0.00,VWS V12.07,2013-05-07 08:53:00,
2013-05-07 03:54:00,48.6,38.5,29.95,NNE,22,0.0,1.0,68,0.00,,CLR,0.00,VWS V12.07,2013-05-07 08:54:00,
2013-05-07 03:56:00,48.6,38.5,29.95,NNE,22,0.0,1.0,68,0.00,,CLR,0.00,VWS V12.07,2013-05-07 08:56:00,
2013-05-07 03:57:00,48.6,38.9,29.95,NNE,22,0.0,1.0,69,0.00,,CLR,0.00,VWS V12.07,2013-05-07 08:57:00,
2013-05-07 03:59:00,48.3,38.6,29.95,NNE,22,0.0,0.0,69,0.00,,CLR,0.00,VWS V12.07,2013-05-07 08:59:00,
2013-05-07 04:01:00,48.0,38.7,29.95,NNE,22,0.0,0.0,70,0.00,,CLR,0.00,VWS V12.07,2013-05-07 09:01:00,
2013-05-07 04:02:00,47.9,38.6,29.95,NNE,22,0.0,1.0,70,0.00,,CLR,0.00,VWS V12.07,2013-05-07 09:02:00,
2013-05-07 04:04:00,47.7,38.4,29.95,NNE,22,0.0,1.0,70,0.00,,CLR,0.00,VWS V12.07,2013-05-07 09:04:00,
2013-05-07 04:05:00,47.7,38.4,29.95,NNE,22,0.0,1.0,70,0.00,,CLR,0.00,VWS V12.07,2013-05-07 09:05:00,
2013-05-07 04:06:00,47.6,38.3,29.95,NNE,22,0.0,1.0,70,0.00,,CLR,0.00,VWS V12.07,2013-05-07 09:06:00,
2013-05-07 04:07:00,47.6,38.3,29.95,NNE,22,1.0,1.0,70,0.00,,CLR,0.00,VWS V12.07,2013-05-07 09:07:00,
2013-05-07 04:09:00,47.4,38.1,29.95,NNE,22,0.0,1.0,70,0.00,,CLR,0.00,VWS V12.07,2013-05-07 09:09:00,
2013-05-07 04:10:00,47.3,38.0,29.95,NNE,22,1.0,1.0,70,0.00,,CLR,0.00,VWS V12.07,2013-05-07 09:10:00,
2013-05-07 04:12:00,47.1,37.8,29.95,NNE,22,0.0,1.0,70,0.00,,CLR,0.00,VWS V12.07,2013-05-07 09:12:00,
2013-05-07 04:13:00,47.1,38.2,29.95,NNE,22,0.0,1.0,71,0.00,,CLR,0.00,VWS V12.07,2013-05-07 09:13:00,
2013-05-07 04:14:00,47.0,38.1,29.95,NNE,22,0.0,1.0,71,0.00,,CLR,0.00,VWS V12.07,2013-05-07 09:14:00,
2013-05-07 04:15:00,46.8,37.9,29.95,NNE,22,0.0,1.0,71,0.00,,CLR,0.00,VWS V12.07,2013-05-07 09:15:00,
2013-05-07 04:17:00,46.7,37.8,29.95,NNE,22,0.0,1.0,71,0.00,,CLR,0.00,VWS V12.07,2013-05-07 09:17:00,
2013-05-07 04:18:00,46.7,37.8,29.95,NNE,22,0.0,1.0,71,0.00,,CLR,0.00,VWS V12.07,2013-05-07 09:18:00,
2013-05-07 04:19:00,46.4,37.9,29.95,NNE,22,0.0,0.0,72,0.00,,CLR,0.00,VWS V12.07,2013-05-07 09:19:00,
2013-05-07 04:20:00,46.2,37.3,29.95,NNE,22,0.0,0.0,71,0.00,,CLR,0.00,VWS V12.07,2013-05-07 09:20:00,
2013-05-07 04:22:00,46.1,37.2,29.95,NNE,22,0.0,0.0,71,0.00,,CLR,0.00,VWS V12.07,2013-05-07 09:22:00,
2013-05-07 04:23:00,45.7,36.8,29.95,NNE,22,0.0,0.0,71,0.00,,CLR,0.00,VWS V12.07,2013-05-07 09:23:00,
2013-05-07 04:24:00,45.5,36.7,29.95,NNE,22,0.0,0.0,71,0.00,,CLR,0.00,VWS V12.07,2013-05-07 09:24:00,
2013-05-07 04:25:00,45.2,36.4,29.95,NNE,22,0.0,0.0,71,0.00,,CLR,0.00,VWS V12.07,2013-05-07 09:25:00,
2013-05-07 04:27:00,44.8,36.3,29.95,NNE,22,0.0,0.0,72,0.00,,CLR,0.00,VWS V12.07,2013-05-07 09:27:00,
2013-05-07 04:28:00,45.5,36.7,29.95,NNE,22,0.0,0.0,71,0.00,,CLR,0.00,VWS V12.07,2013-05-07 09:28:00,
2013-05-07 04:29:00,44.1,36.4,29.96,NNE,22,0.0,0.0,74,0.00,,CLR,0.00,VWS V12.07,2013-05-07 09:29:00,
2013-05-07 04:30:00,43.8,36.4,29.96,NNE,22,0.0,0.0,75,0.00,,CLR,0.00,VWS V12.07,2013-05-07 09:30:00,
2013-05-07 04:32:00,43.5,36.8,29.96,NNE,22,0.0,0.0,77,0.00,,CLR,0.00,VWS V12.07,2013-05-07 09:32:00,
2013-05-07 04:33:00,43.3,36.9,29.96,NNE,22,0.0,0.0,78,0.00,,CLR,0.00,VWS V12.07,2013-05-07 09:33:00,
2013-05-07 04:34:00,43.3,36.9,29.96,NNE,22,0.0,0.0,78,0.00,,CLR,0.00,VWS V12.07,2013-05-07 09:34:00,
2013-05-07 04:35:00,43.2,36.8,29.96,NNE,22,0.0,0.0,78,0.00,,CLR,0.00,VWS V12.07,2013-05-07 09:35:00,
2013-05-07 04:36:00,43.2,37.1,29.96,NNE,22,0.0,0.0,79,0.00,,CLR,0.00,VWS V12.07,2013-05-07 09:36:00,
2013-05-07 04:38:00,43.3,36.9,29.96,NNE,22,0.0,0.0,78,0.00,,CLR,0.00,VWS V12.07,2013-05-07 09:38:00,
2013-05-07 04:39:00,43.1,37.0,29.96,NNE,22,0.0,0.0,79,0.00,,CLR,0.00,VWS V12.07,2013-05-07 09:39:00,
2013-05-07 04:40:00,43.1,37.0,29.96,NNE,22,0.0,0.0,79,0.00,,CLR,0.00,VWS V12.07,2013-05-07 09:40:00,
2013-05-07 04:41:00,43.1,37.0,29.96,NNE,22,0.0,0.0,79,0.00,,CLR,0.00,VWS V12.07,2013-05-07 09:41:00,
2013-05-07 04:43:00,43.1,37.0,29.96,NNE,22,0.0,0.0,79,0.00,,CLR,0.00,VWS V12.07,2013-05-07 09:43:00,
2013-05-07 04:44:00,43.1,37.0,29.96,NNE,22,0.0,0.0,79,0.00,,CLR,0.00,VWS V12.07,2013-05-07 09:44:00,
2013-05-07 04:45:00,43.1,37.4,29.96,NNE,22,0.0,0.0,80,0.00,,CLR,0.00,VWS V12.07,2013-05-07 09:45:00,
2013-05-07 04:46:00,43.1,37.4,29.96,NNE,22,0.0,0.0,80,0.00,,CLR,0.00,VWS V12.07,2013-05-07 09:46:00,
2013-05-07 04:48:00,43.1,37.4,29.96,NNE,22,0.0,0.0,80,0.00,,CLR,0.00,VWS V12.07,2013-05-07 09:48:00,
2013-05-07 04:50:00,43.1,37.4,29.96,NNE,22,0.0,0.0,80,0.00,,CLR,0.00,VWS V12.07,2013-05-07 09:50:00,
2013-05-07 04:51:00,43.1,37.4,29.96,NNE,22,0.0,0.0,80,0.00,,CLR,0.00,VWS V12.07,2013-05-07 09:51:00,
2013-05-07 04:54:00,43.1,37.0,29.96,NNE,22,0.0,0.0,79,0.00,,CLR,0.00,VWS V12.07,2013-05-07 09:54:00,
2013-05-07 04:55:00,42.9,36.8,29.96,NNE,22,0.0,0.0,79,0.00,,CLR,0.00,VWS V12.07,2013-05-07 09:55:00,
2013-05-07 04:56:00,42.9,36.8,29.96,NNE,22,0.0,0.0,79,0.00,,CLR,0.00,VWS V12.07,2013-05-07 09:56:00,
2013-05-07 04:59:00,42.8,37.1,29.96,NNE,22,0.0,0.0,80,0.00,,CLR,0.00,VWS V12.07,2013-05-07 09:59:00,
2013-05-07 05:00:00,42.6,36.9,29.96,NNE,22,0.0,0.0,80,0.00,,CLR,0.00,VWS V12.07,2013-05-07 10:00:00,
2013-05-07 05:01:00,42.6,36.9,29.96,NNE,22,0.0,0.0,80,0.00,,CLR,0.00,VWS V12.07,2013-05-07 10:01:00,
2013-05-07 05:02:00,42.6,37.2,29.96,NNE,22,0.0,0.0,81,0.00,,CLR,0.00,VWS V12.07,2013-05-07 10:02:00,
2013-05-07 05:04:00,42.3,36.9,29.96,NNE,22,0.0,0.0,81,0.00,,CLR,0.00,VWS V12.07,2013-05-07 10:04:00,
2013-05-07 05:06:00,42.3,36.9,29.96,NNE,22,0.0,0.0,81,0.00,,CLR,0.00,VWS V12.07,2013-05-07 10:06:00,
2013-05-07 05:07:00,42.2,36.8,29.96,NNE,22,0.0,0.0,81,0.00,,CLR,0.00,VWS V12.07,2013-05-07 10:07:00,
2013-05-07 05:11:00,42.1,36.7,29.96,NNE,22,0.0,0.0,81,0.00,,CLR,0.00,VWS V12.07,2013-05-07 10:11:00,
2013-05-07 05:12:00,41.9,36.5,29.96,NNE,22,0.0,0.0,81,0.00,,CLR,0.00,VWS V12.07,2013-05-07 10:12:00,
2013-05-07 05:16:00,41.8,36.7,29.97,NNE,22,0.0,0.0,82,0.00,,CLR,0.00,VWS V12.07,2013-05-07 10:16:00,
2013-05-07 05:17:00,41.6,36.5,29.97,NNE,22,0.0,0.0,82,0.00,,CLR,0.00,VWS V12.07,2013-05-07 10:17:00,
2013-05-07 05:21:00,41.5,36.4,29.97,NNE,22,0.0,0.0,82,0.00,,CLR,0.00,VWS V12.07,2013-05-07 10:21:00,
2013-05-07 05:22:00,41.3,36.2,29.97,NNE,22,0.0,0.0,82,0.00,,CLR,0.00,VWS V12.07,2013-05-07 10:22:00,
2013-05-07 05:27:00,41.2,36.4,29.97,NNE,22,0.0,0.0,83,0.00,,CLR,0.00,VWS V12.07,2013-05-07 10:27:00,
2013-05-07 05:28:00,41.2,36.7,29.97,NNE,22,0.0,0.0,84,0.00,,CLR,0.00,VWS V12.07,2013-05-07 10:28:00,
2013-05-07 05:32:00,41.1,36.6,29.97,NNE,22,0.0,0.0,84,0.00,,CLR,0.00,VWS V12.07,2013-05-07 10:32:00,
2013-05-07 05:33:00,40.9,36.5,29.97,NNE,22,0.0,0.0,84,0.00,,CLR,0.00,VWS V12.07,2013-05-07 10:33:00,
2013-05-07 05:34:00,40.9,36.5,29.97,NNE,22,0.0,0.0,84,0.00,,CLR,0.00,VWS V12.07,2013-05-07 10:34:00,
2013-05-07 05:37:00,40.9,36.5,29.97,NNE,22,0.0,0.0,84,0.00,,CLR,0.00,VWS V12.07,2013-05-07 10:37:00,
2013-05-07 05:38:00,40.8,36.7,29.97,NNE,22,0.0,0.0,85,0.00,,CLR,0.00,VWS V12.07,2013-05-07 10:38:00,
2013-05-07 05:39:00,40.8,36.7,29.97,NNE,22,0.0,0.0,85,0.00,,CLR,0.00,VWS V12.07,2013-05-07 10:39:00,
2013-05-07 05:42:00,40.8,36.7,29.97,NNE,22,0.0,1.0,85,0.00,,CLR,0.00,VWS V12.07,2013-05-07 10:42:00,
2013-05-07 05:43:00,40.8,36.7,29.97,NNE,22,0.0,1.0,85,0.00,,CLR,0.00,VWS V12.07,2013-05-07 10:43:00,
2013-05-07 05:44:00,40.6,36.5,29.97,NNE,22,0.0,1.0,85,0.00,,CLR,0.00,VWS V12.07,2013-05-07 10:44:00,
2013-05-07 05:47:00,40.6,36.5,29.97,NNE,22,0.0,1.0,85,0.00,,CLR,0.00,VWS V12.07,2013-05-07 10:47:00,
2013-05-07 05:48:00,40.6,36.5,29.97,NNE,22,0.0,1.0,85,0.00,,CLR,0.00,VWS V12.07,2013-05-07 10:48:00,
2013-05-07 05:49:00,40.5,36.3,29.97,NNE,22,0.0,0.0,85,0.00,,CLR,0.00,VWS V12.07,2013-05-07 10:49:00,
2013-05-07 05:53:00,40.5,36.3,29.97,NNE,22,0.0,0.0,85,0.00,,CLR,0.00,VWS V12.07,2013-05-07 10:53:00,
2013-05-07 05:54:00,40.5,36.3,29.97,NNE,22,0.0,0.0,85,0.00,,CLR,0.00,VWS V12.07,2013-05-07 10:54:00,
2013-05-07 05:58:00,40.3,36.2,29.97,NNE,22,0.0,0.0,85,0.00,,CLR,0.00,VWS V12.07,2013-05-07 10:58:00,
2013-05-07 05:59:00,40.2,36.1,29.98,NNE,22,0.0,0.0,85,0.00,,CLR,0.00,VWS V12.07,2013-05-07 10:59:00,
2013-05-07 06:00:00,40.2,36.1,29.98,NNE,22,0.0,0.0,85,0.00,,CLR,0.00,VWS V12.07,2013-05-07 11:00:00,
2013-05-07 06:03:00,40.1,36.0,29.98,NNE,22,0.0,0.0,85,0.00,,CLR,0.00,VWS V12.07,2013-05-07 11:03:00,
2013-05-07 06:04:00,40.1,36.0,29.98,NNE,22,0.0,0.0,85,0.00,,CLR,0.00,VWS V12.07,2013-05-07 11:04:00,
2013-05-07 06:05:00,40.1,36.0,29.98,NNE,22,0.0,0.0,85,0.00,,CLR,0.00,VWS V12.07,2013-05-07 11:05:00,
2013-05-07 06:08:00,39.9,36.1,29.98,NNE,22,0.0,0.0,86,0.00,,CLR,0.00,VWS V12.07,2013-05-07 11:08:00,
2013-05-07 06:09:00,39.9,36.1,29.98,NNE,22,0.0,0.0,86,0.00,,CLR,0.00,VWS V12.07,2013-05-07 11:09:00,
2013-05-07 06:10:00,39.9,36.1,29.98,NNE,22,0.0,0.0,86,0.00,,CLR,0.00,VWS V12.07,2013-05-07 11:10:00,
2013-05-07 06:11:00,39.9,36.1,29.98,NNE,22,0.0,0.0,86,0.00,,CLR,0.00,VWS V12.07,2013-05-07 11:11:00,
2013-05-07 06:14:00,39.8,36.0,29.98,NNE,22,0.0,0.0,86,0.00,,CLR,0.00,VWS V12.07,2013-05-07 11:14:00,
2013-05-07 06:15:00,39.6,35.8,29.98,NNE,22,0.0,0.0,86,0.00,,CLR,0.00,VWS V12.07,2013-05-07 11:15:00,
2013-05-07 06:16:00,39.6,35.8,29.98,NNE,22,0.0,0.0,86,0.00,,CLR,0.00,VWS V12.07,2013-05-07 11:16:00,
2013-05-07 06:19:00,39.5,35.7,29.98,NNE,22,0.0,0.0,86,0.00,,CLR,0.00,VWS V12.07,2013-05-07 11:19:00,
2013-05-07 06:20:00,39.5,35.7,29.98,NNE,22,0.0,0.0,86,0.00,,CLR,0.00,VWS V12.07,2013-05-07 11:20:00,
2013-05-07 06:21:00,39.5,35.7,29.98,NNE,22,0.0,0.0,86,0.00,,CLR,0.00,VWS V12.07,2013-05-07 11:21:00,
2013-05-07 06:24:00,39.5,36.0,29.98,NNE,22,0.0,0.0,87,0.00,,CLR,0.00,VWS V12.07,2013-05-07 11:24:00,
2013-05-07 06:25:00,39.5,36.0,29.98,NNE,22,0.0,0.0,87,0.00,,CLR,0.00,VWS V12.07,2013-05-07 11:25:00,
2013-05-07 06:27:00,39.5,36.2,29.98,NNE,22,0.0,0.0,88,0.00,,CLR,0.00,VWS V12.07,2013-05-07 11:27:00,
2013-05-07 06:29:00,39.5,36.2,29.99,NNE,22,0.0,0.0,88,0.00,,CLR,0.00,VWS V12.07,2013-05-07 11:29:00,
2013-05-07 06:30:00,39.5,36.0,29.99,NNE,22,0.0,0.0,87,0.00,,CLR,0.00,VWS V12.07,2013-05-07 11:30:00,
2013-05-07 06:31:00,39.5,36.0,29.99,NNE,22,0.0,0.0,87,0.00,,CLR,0.00,VWS V12.07,2013-05-07 11:31:00,
2013-05-07 06:32:00,39.5,36.2,29.99,NNE,22,0.0,0.0,88,0.00,,CLR,0.00,VWS V12.07,2013-05-07 11:32:00,
2013-05-07 06:35:00,39.6,36.3,29.99,NNE,22,0.0,0.0,88,0.00,,CLR,0.00,VWS V12.07,2013-05-07 11:35:00,
2013-05-07 06:36:00,39.6,36.3,29.99,NNE,22,0.0,0.0,88,0.00,,CLR,0.00,VWS V12.07,2013-05-07 11:36:00,
2013-05-07 06:37:00,39.6,36.3,29.99,NNE,22,0.0,0.0,88,0.00,,CLR,0.00,VWS V12.07,2013-05-07 11:37:00,
2013-05-07 06:40:00,39.8,36.5,29.99,NNE,22,0.0,0.0,88,0.00,,CLR,0.00,VWS V12.07,2013-05-07 11:40:00,
2013-05-07 06:41:00,39.8,36.5,29.99,NNE,22,0.0,0.0,88,0.00,,CLR,0.00,VWS V12.07,2013-05-07 11:41:00,
2013-05-07 06:42:00,39.9,36.6,29.99,NNE,22,0.0,0.0,88,0.00,,CLR,0.00,VWS V12.07,2013-05-07 11:42:00,
2013-05-07 06:46:00,39.9,36.6,29.99,NNE,22,0.0,0.0,88,0.00,,CLR,0.00,VWS V12.07,2013-05-07 11:46:00,
2013-05-07 06:47:00,40.1,36.8,29.99,NNE,22,0.0,0.0,88,0.00,,CLR,0.00,VWS V12.07,2013-05-07 11:47:00,
2013-05-07 06:51:00,40.2,36.9,29.99,NNE,22,0.0,0.0,88,0.00,,CLR,0.00,VWS V12.07,2013-05-07 11:51:00,
2013-05-07 06:52:00,40.3,37.0,29.99,NNE,22,0.0,0.0,88,0.00,,CLR,0.00,VWS V12.07,2013-05-07 11:52:00,
2013-05-07 06:53:00,40.3,37.0,29.99,NNE,22,0.0,0.0,88,0.00,,CLR,0.00,VWS V12.07,2013-05-07 11:53:00,
2013-05-07 06:56:00,40.8,37.5,29.99,NNE,22,0.0,0.0,88,0.00,,CLR,0.00,VWS V12.07,2013-05-07 11:56:00,
2013-05-07 06:57:00,40.8,37.5,29.99,NNE,22,0.0,0.0,88,0.00,,CLR,0.00,VWS V12.07,2013-05-07 11:57:00,
2013-05-07 06:58:00,40.9,37.6,29.99,NNE,22,0.0,0.0,88,0.00,,CLR,0.00,VWS V12.07,2013-05-07 11:58:00,
2013-05-07 07:02:00,41.3,38.0,30.00,NNE,22,0.0,0.0,88,0.00,,CLR,0.00,VWS V12.07,2013-05-07 12:02:00,
2013-05-07 07:03:00,41.5,38.2,30.00,NNE,22,0.0,0.0,88,0.00,,CLR,0.00,VWS V12.07,2013-05-07 12:03:00,
2013-05-07 07:07:00,41.9,38.3,30.00,NNE,22,0.0,0.0,87,0.00,,CLR,0.00,VWS V12.07,2013-05-07 12:07:00,
2013-05-07 07:08:00,42.1,38.5,30.00,NNE,22,0.0,0.0,87,0.00,,CLR,0.00,VWS V12.07,2013-05-07 12:08:00,
2013-05-07 07:09:00,42.2,38.6,30.00,NNE,22,0.0,0.0,87,0.00,,CLR,0.00,VWS V12.07,2013-05-07 12:09:00,
2013-05-07 07:12:00,42.5,38.6,30.00,NNE,22,0.0,0.0,86,0.00,,CLR,0.00,VWS V12.07,2013-05-07 12:12:00,
2013-05-07 07:13:00,42.6,38.7,30.00,NNE,22,0.0,0.0,86,0.00,,CLR,0.00,VWS V12.07,2013-05-07 12:13:00,
2013-05-07 07:14:00,42.8,38.9,30.00,NNE,22,0.0,0.0,86,0.00,,CLR,0.00,VWS V12.07,2013-05-07 12:14:00,
2013-05-07 07:18:00,43.1,38.9,30.00,NNE,22,0.0,0.0,85,0.00,,CLR,0.00,VWS V12.07,2013-05-07 12:18:00,
2013-05-07 07:19:00,43.2,39.0,30.00,NNE,22,0.0,0.0,85,0.00,,CLR,0.00,VWS V12.07,2013-05-07 12:19:00,
2013-05-07 07:23:00,43.9,39.7,30.00,NNE,22,0.0,0.0,85,0.00,,CLR,0.00,VWS V12.07,2013-05-07 12:23:00,
2013-05-07 07:24:00,44.1,39.6,30.00,NNE,22,0.0,0.0,84,0.00,,CLR,0.00,VWS V12.07,2013-05-07 12:24:00,
2013-05-07 07:25:00,44.3,39.8,30.00,NNE,22,0.0,0.0,84,0.00,,CLR,0.00,VWS V12.07,2013-05-07 12:25:00,
2013-05-07 07:28:00,45.2,40.3,30.00,NNE,22,0.0,0.0,83,0.00,,CLR,0.00,VWS V12.07,2013-05-07 12:28:00,
2013-05-07 07:29:00,45.4,40.5,30.00,NNE,22,0.0,0.0,83,0.00,,CLR,0.00,VWS V12.07,2013-05-07 12:29:00,
2013-05-07 07:31:00,45.8,40.6,30.00,NNE,22,0.0,0.0,82,0.00,,CLR,0.00,VWS V12.07,2013-05-07 12:31:00,
2013-05-07 07:33:00,46.1,40.3,30.00,NNE,22,0.0,0.0,80,0.00,,CLR,0.00,VWS V12.07,2013-05-07 12:33:00,
2013-05-07 07:34:00,46.2,40.4,30.00,NNE,22,0.0,0.0,80,0.00,,CLR,0.00,VWS V12.07,2013-05-07 12:34:00,
2013-05-07 07:36:00,46.4,40.2,30.00,NNE,22,0.0,0.0,79,0.00,,CLR,0.00,VWS V12.07,2013-05-07 12:36:00,
2013-05-07 07:37:00,46.4,40.2,30.00,NNE,22,0.0,0.0,79,0.00,,CLR,0.00,VWS V12.07,2013-05-07 12:37:00,
2013-05-07 07:38:00,46.4,39.9,30.00,NNE,22,0.0,0.0,78,0.00,,CLR,0.00,VWS V12.07,2013-05-07 12:38:00,
2013-05-07 07:40:00,46.4,39.9,30.00,NNE,22,0.0,0.0,78,0.00,,CLR,0.00,VWS V12.07,2013-05-07 12:40:00,
2013-05-07 07:41:00,46.4,39.3,30.00,NNE,22,0.0,0.0,76,0.00,,CLR,0.00,VWS V12.07,2013-05-07 12:41:00,
2013-05-07 07:43:00,46.5,39.0,30.00,NNE,22,0.0,0.0,75,0.00,,CLR,0.00,VWS V12.07,2013-05-07 12:43:00,
2013-05-07 07:44:00,46.5,39.0,30.00,NNE,22,0.0,0.0,75,0.00,,CLR,0.00,VWS V12.07,2013-05-07 12:44:00,
2013-05-07 07:45:00,46.7,39.2,30.00,NNE,22,0.0,0.0,75,0.00,,CLR,0.00,VWS V12.07,2013-05-07 12:45:00,
2013-05-07 07:46:00,46.8,39.3,30.00,NNE,22,0.0,0.0,75,0.00,,CLR,0.00,VWS V12.07,2013-05-07 12:46:00,
2013-05-07 07:47:00,47.0,38.8,30.00,NNE,22,0.0,0.0,73,0.00,,CLR,0.00,VWS V12.07,2013-05-07 12:47:00,
2013-05-07 07:48:00,47.3,39.1,30.00,NNE,22,1.0,1.0,73,0.00,,CLR,0.00,VWS V12.07,2013-05-07 12:48:00,
2013-05-07 07:49:00,47.3,39.1,30.00,NNE,22,2.0,2.0,73,0.00,,CLR,0.00,VWS V12.07,2013-05-07 12:49:00,
2013-05-07 07:50:00,47.9,39.0,30.00,NNE,22,0.0,2.0,71,0.00,,CLR,0.00,VWS V12.07,2013-05-07 12:50:00,
2013-05-07 07:52:00,48.6,39.6,30.00,NNE,22,0.0,2.0,71,0.00,,CLR,0.00,VWS V12.07,2013-05-07 12:52:00,
2013-05-07 07:54:00,48.9,39.9,30.00,NNE,22,0.0,2.0,71,0.00,,CLR,0.00,VWS V12.07,2013-05-07 12:54:00,
2013-05-07 07:56:00,49.4,40.4,30.00,NNE,22,0.0,2.0,71,0.00,,CLR,0.00,VWS V12.07,2013-05-07 12:56:00,
2013-05-07 07:58:00,49.6,41.0,30.00,NNE,22,0.0,2.0,72,0.00,,CLR,0.00,VWS V12.07,2013-05-07 12:58:00,
2013-05-07 07:59:00,49.9,40.5,30.00,NNE,22,0.0,0.0,70,0.00,,CLR,0.00,VWS V12.07,2013-05-07 12:59:00,
2013-05-07 08:00:00,50.2,40.4,30.00,NNE,22,0.0,0.0,69,0.00,,CLR,0.00,VWS V12.07,2013-05-07 13:00:00,
2013-05-07 08:01:00,50.4,41.0,30.00,NNE,22,0.0,0.0,70,0.00,,CLR,0.00,VWS V12.07,2013-05-07 13:01:00,
2013-05-07 08:03:00,50.8,41.0,30.00,NNE,22,0.0,0.0,69,0.00,,CLR,0.00,VWS V12.07,2013-05-07 13:03:00,
2013-05-07 08:04:00,51.1,40.5,30.00,NNE,22,0.0,0.0,67,0.00,,CLR,0.00,VWS V12.07,2013-05-07 13:04:00,
2013-05-07 08:06:00,51.4,41.2,30.00,NNE,22,0.0,0.0,68,0.00,,CLR,0.00,VWS V12.07,2013-05-07 13:06:00,
2013-05-07 08:08:00,52.0,40.6,30.00,NNE,22,0.0,0.0,65,0.00,,CLR,0.00,VWS V12.07,2013-05-07 13:08:00,
2013-05-07 08:09:00,52.2,40.8,30.00,NNE,22,0.0,0.0,65,0.00,,CLR,0.00,VWS V12.07,2013-05-07 13:09:00,
2013-05-07 08:10:00,52.5,41.1,30.00,NNE,22,0.0,0.0,65,0.00,,CLR,0.00,VWS V12.07,2013-05-07 13:10:00,
2013-05-07 08:11:00,52.8,42.2,30.00,NNE,22,0.0,0.0,67,0.00,,CLR,0.00,VWS V12.07,2013-05-07 13:11:00,
2013-05-07 08:14:00,53.2,41.3,30.00,NNE,22,0.0,0.0,64,0.00,,CLR,0.00,VWS V12.07,2013-05-07 13:14:00,
2013-05-07 08:15:00,53.5,42.0,30.00,NNE,22,0.0,0.0,65,0.00,,CLR,0.00,VWS V12.07,2013-05-07 13:15:00,
2013-05-07 08:16:00,53.6,42.5,30.00,NNE,22,0.0,0.0,66,0.00,,CLR,0.00,VWS V12.07,2013-05-07 13:16:00,
2013-05-07 08:17:00,53.6,42.5,30.00,NNE,22,0.0,0.0,66,0.00,,CLR,0.00,VWS V12.07,2013-05-07 13:17:00,
2013-05-07 08:19:00,53.9,42.0,30.00,NNE,22,0.0,0.0,64,0.00,,CLR,0.00,VWS V12.07,2013-05-07 13:19:00,
2013-05-07 08:21:00,54.2,42.3,30.00,NNE,22,0.0,0.0,64,0.00,,CLR,0.00,VWS V12.07,2013-05-07 13:21:00,
2013-05-07 08:22:00,54.4,42.1,30.00,NNE,22,0.0,0.0,63,0.00,,CLR,0.00,VWS V12.07,2013-05-07 13:22:00,
2013-05-07 08:24:00,54.7,42.4,30.00,NNE,22,0.0,0.0,63,0.00,,CLR,0.00,VWS V12.07,2013-05-07 13:24:00,
2013-05-07 08:26:00,55.0,39.6,30.00,NNE,22,0.0,0.0,56,0.00,,CLR,0.00,VWS V12.07,2013-05-07 13:26:00,
2013-05-07 08:27:00,55.3,41.2,30.00,NNE,22,0.0,0.0,59,0.00,,CLR,0.00,VWS V12.07,2013-05-07 13:27:00,
2013-05-07 08:29:00,55.7,39.8,30.00,NNE,22,0.0,0.0,55,0.00,,CLR,0.00,VWS V12.07,2013-05-07 13:29:00,
2013-05-07 08:30:00,55.7,39.8,30.00,NNE,22,0.0,0.0,55,0.00,,CLR,0.00,VWS V12.07,2013-05-07 13:30:00,
2013-05-07 08:31:00,56.0,41.0,30.00,NNE,22,0.0,0.0,57,0.00,,CLR,0.00,VWS V12.07,2013-05-07 13:31:00,
2013-05-07 08:33:00,56.5,40.1,30.00,NNE,22,0.0,0.0,54,0.00,,CLR,0.00,VWS V12.07,2013-05-07 13:33:00,
2013-05-07 08:34:00,56.7,39.8,30.00,NNE,22,0.0,1.0,53,0.00,,CLR,0.00,VWS V12.07,2013-05-07 13:34:00,
2013-05-07 08:35:00,56.9,40.4,30.00,NNE,22,0.0,1.0,54,0.00,,CLR,0.00,VWS V12.07,2013-05-07 13:35:00,
2013-05-07 08:36:00,57.0,39.6,30.00,NNE,22,1.0,1.0,52,0.00,,CLR,0.00,VWS V12.07,2013-05-07 13:36:00,
2013-05-07 08:37:00,57.2,39.8,30.00,NNE,22,0.0,1.0,52,0.00,,CLR,0.00,VWS V12.07,2013-05-07 13:37:00,
2013-05-07 08:38:00,53.3,41.5,30.00,NNE,22,0.0,0.0,64,0.00,,CLR,0.00,VWS V12.07,2013-05-07 13:38:00,
2013-05-07 08:40:00,57.6,39.6,30.00,NNE,22,0.0,1.0,51,0.00,,CLR,0.00,VWS V12.07,2013-05-07 13:40:00,
2013-05-07 08:41:00,58.0,39.5,30.00,NNE,22,1.0,1.0,50,0.00,,CLR,0.00,VWS V12.07,2013-05-07 13:41:00,
2013-05-07 08:42:00,58.1,40.1,30.00,NNE,22,0.0,1.0,51,0.00,,CLR,0.00,VWS V12.07,2013-05-07 13:42:00,
2013-05-07 08:44:00,58.4,39.3,30.00,NNE,22,1.0,2.0,49,0.00,,CLR,0.00,VWS V12.07,2013-05-07 13:44:00,
2013-05-07 08:45:00,58.6,40.0,30.00,NNE,22,0.0,2.0,50,0.00,,CLR,0.00,VWS V12.07,2013-05-07 13:45:00,
2013-05-07 08:47:00,58.9,39.3,30.00,NNE,24,0.0,2.0,48,0.00,,CLR,0.00,VWS V12.07,2013-05-07 13:47:00,
2013-05-07 08:49:00,59.2,39.5,30.00,NNE,24,0.0,1.0,48,0.00,,CLR,0.00,VWS V12.07,2013-05-07 13:49:00,
2013-05-07 08:50:00,59.3,39.6,30.00,NNE,24,0.0,1.0,48,0.00,,CLR,0.00,VWS V12.07,2013-05-07 13:50:00,
2013-05-07 08:52:00,59.8,39.0,30.00,NNE,25,0.0,2.0,46,0.00,,CLR,0.00,VWS V12.07,2013-05-07 13:52:00,
2013-05-07 08:53:00,59.8,39.0,30.00,NNE,25,1.0,2.0,46,0.00,,CLR,0.00,VWS V12.07,2013-05-07 13:53:00,
2013-05-07 08:54:00,60.1,39.3,30.00,NNE,25,1.0,2.0,46,0.00,,CLR,0.00,VWS V12.07,2013-05-07 13:54:00,
2013-05-07 08:55:00,60.2,39.4,30.00,NNE,25,0.0,2.0,46,0.00,,CLR,0.00,VWS V12.07,2013-05-07 13:55:00,
2013-05-07 08:56:00,60.4,39.5,30.00,NNE,25,0.0,2.0,46,0.00,,CLR,0.00,VWS V12.07,2013-05-07 13:56:00,
2013-05-07 08:58:00,60.5,39.1,30.00,East,86,1.0,2.0,45,0.00,,CLR,0.00,VWS V12.07,2013-05-07 13:58:00,
2013-05-07 08:59:00,60.7,39.3,30.00,SE,143,0.0,2.0,45,0.00,,CLR,0.00,VWS V12.07,2013-05-07 13:59:00,
2013-05-07 09:00:00,60.7,39.3,30.00,SE,143,0.0,2.0,45,0.00,,CLR,0.00,VWS V12.07,2013-05-07 14:00:00,
2013-05-07 09:01:00,61.0,39.0,30.00,SE,143,0.0,2.0,44,0.00,,CLR,0.00,VWS V12.07,2013-05-07 14:01:00,
2013-05-07 09:03:00,61.2,39.1,30.00,South,179,2.0,3.0,44,0.00,,CLR,0.00,VWS V12.07,2013-05-07 14:03:00,
2013-05-07 09:05:00,61.3,38.6,30.00,South,179,0.0,3.0,43,0.00,,CLR,0.00,VWS V12.07,2013-05-07 14:05:00,
2013-05-07 09:06:00,61.3,39.2,30.00,South,179,1.0,3.0,44,0.00,,CLR,0.00,VWS V12.07,2013-05-07 14:06:00,
2013-05-07 09:08:00,61.5,38.2,30.00,SSW,199,1.0,3.0,42,0.00,,CLR,0.00,VWS V12.07,2013-05-07 14:08:00,
2013-05-07 09:10:00,61.8,38.5,30.00,SSW,199,0.0,3.0,42,0.00,,CLR,0.00,VWS V12.07,2013-05-07 14:10:00,
2013-05-07 09:11:00,61.8,37.9,30.00,SSW,199,1.0,3.0,41,0.00,,CLR,0.00,VWS V12.07,2013-05-07 14:11:00,
2013-05-07 09:12:00,62.0,38.0,30.00,SSW,199,1.0,3.0,41,0.00,,CLR,0.00,VWS V12.07,2013-05-07 14:12:00,
2013-05-07 09:13:00,62.3,38.3,29.99,SSW,196,2.0,3.0,41,0.00,,CLR,0.00,VWS V12.07,2013-05-07 14:13:00,
2013-05-07 09:16:00,62.6,38.0,29.99,SSW,196,1.0,3.0,40,0.00,,CLR,0.00,VWS V12.07,2013-05-07 14:16:00,
2013-05-07 09:17:00,62.7,38.0,29.99,SSW,196,0.0,3.0,40,0.00,,CLR,0.00,VWS V12.07,2013-05-07 14:17:00,
2013-05-07 09:19:00,62.7,38.0,29.99,SSW,196,1.0,2.0,40,0.00,,CLR,0.00,VWS V12.07,2013-05-07 14:19:00,
2013-05-07 09:21:00,62.9,38.2,29.99,SSW,196,1.0,3.0,40,0.00,,CLR,0.00,VWS V12.07,2013-05-07 14:21:00,
2013-05-07 09:22:00,62.9,38.9,29.99,SSW,196,1.0,3.0,41,0.00,,CLR,0.00,VWS V12.07,2013-05-07 14:22:00,
2013-05-07 09:24:00,63.2,39.1,29.99,SSW,196,1.0,3.0,41,0.00,,CLR,0.00,VWS V12.07,2013-05-07 14:24:00,
2013-05-07 09:26:00,63.4,39.3,29.99,SSW,196,0.0,3.0,41,0.00,,CLR,0.00,VWS V12.07,2013-05-07 14:26:00,
2013-05-07 09:27:00,63.4,39.3,29.99,SSW,193,1.0,3.0,41,0.00,,CLR,0.00,VWS V12.07,2013-05-07 14:27:00,
2013-05-07 09:29:00,63.7,39.0,29.99,South,189,0.0,2.0,40,0.00,,CLR,0.00,VWS V12.07,2013-05-07 14:29:00,
2013-05-07 09:31:00,64.0,39.2,29.99,South,186,0.0,2.0,40,0.00,,CLR,0.00,VWS V12.07,2013-05-07 14:31:00,
2013-05-07 09:32:00,64.0,39.2,29.99,South,186,2.0,2.0,40,0.00,,CLR,0.00,VWS V12.07,2013-05-07 14:32:00,
2013-05-07 09:35:00,64.3,39.5,29.99,SE,143,0.0,3.0,40,0.00,,CLR,0.00,VWS V12.07,2013-05-07 14:35:00,
2013-05-07 09:37:00,64.5,39.0,29.99,SSE,152,1.0,3.0,39,0.00,,CLR,0.00,VWS V12.07,2013-05-07 14:37:00,
2013-05-07 09:38:00,64.5,39.0,29.99,SSE,152,1.0,3.0,39,0.00,,CLR,0.00,VWS V12.07,2013-05-07 14:38:00,
2013-05-07 09:40:00,64.7,39.2,29.99,SSE,160,0.0,3.0,39,0.00,,CLR,0.00,VWS V12.07,2013-05-07 14:40:00,
2013-05-07 09:42:00,65.0,39.5,29.99,SSE,160,0.0,3.0,39,0.00,,CLR,0.00,VWS V12.07,2013-05-07 14:42:00,
2013-05-07 09:43:00,65.0,38.8,29.99,SSE,160,0.0,3.0,38,0.00,,CLR,0.00,VWS V12.07,2013-05-07 14:43:00,
2013-05-07 09:44:00,65.0,38.8,29.98,SSE,160,1.0,3.0,38,0.00,,CLR,0.00,VWS V12.07,2013-05-07 14:44:00,
2013-05-07 09:45:00,65.2,39.0,29.98,SSW,192,0.0,4.0,38,0.00,,CLR,0.00,VWS V12.07,2013-05-07 14:45:00,
2013-05-07 09:47:00,65.2,39.0,29.98,SSW,192,2.0,3.0,38,0.00,,CLR,0.00,VWS V12.07,2013-05-07 14:47:00,
2013-05-07 09:48:00,65.2,39.0,29.98,SSW,192,2.0,3.0,38,0.00,,CLR,0.00,VWS V12.07,2013-05-07 14:48:00,
2013-05-07 09:49:00,65.2,39.0,29.98,SSW,192,3.0,3.0,38,0.00,,CLR,0.00,VWS V12.07,2013-05-07 14:49:00,
2013-05-07 09:51:00,65.0,38.8,29.98,SSW,193,1.0,4.0,38,0.00,,CLR,0.00,VWS V12.07,2013-05-07 14:51:00,
2013-05-07 09:52:00,64.8,38.6,29.98,SSW,193,1.0,4.0,38,0.00,,CLR,0.00,VWS V12.07,2013-05-07 14:52:00,
2013-05-07 09:53:00,64.8,38.6,29.98,SSW,193,1.0,4.0,38,0.00,,CLR,0.00,VWS V12.07,2013-05-07 14:53:00,
2013-05-07 09:54:00,64.8,38.6,29.98,SSW,193,2.0,4.0,38,0.00,,CLR,0.00,VWS V12.07,2013-05-07 14:54:00,
2013-05-07 09:56:00,65.0,38.8,29.98,SSW,193,0.0,4.0,38,0.00,,CLR,0.00,VWS V12.07,2013-05-07 14:56:00,
2013-05-07 09:58:00,65.0,38.8,29.98,SSW,193,3.0,4.0,38,0.00,,CLR,0.00,VWS V12.07,2013-05-07 14:58:00,
2013-05-07 09:59:00,65.2,39.0,29.98,SSW,200,3.0,4.0,38,0.00,,CLR,0.00,VWS V12.07,2013-05-07 14:59:00,
2013-05-07 10:01:00,65.2,39.0,29.98,SSW,200,3.0,4.0,38,0.00,,CLR,0.00,VWS V12.07,2013-05-07 15:01:00,
2013-05-07 10:03:00,65.5,39.2,29.98,SSW,200,0.0,4.0,38,0.00,,CLR,0.00,VWS V12.07,2013-05-07 15:03:00,
2013-05-07 10:04:00,65.6,39.3,29.98,SSW,200,1.0,4.0,38,0.00,,CLR,0.00,VWS V12.07,2013-05-07 15:04:00,
2013-05-07 10:06:00,66.0,39.0,29.98,SSW,201,0.0,4.0,37,0.00,,CLR,0.00,VWS V12.07,2013-05-07 15:06:00,
2013-05-07 10:08:00,66.3,39.3,29.98,SSW,201,1.0,4.0,37,0.00,,CLR,0.00,VWS V12.07,2013-05-07 15:08:00,
2013-05-07 10:09:00,66.4,39.4,29.98,SSW,203,1.0,3.0,37,0.00,,CLR,0.00,VWS V12.07,2013-05-07 15:09:00,
2013-05-07 10:10:00,66.6,38.8,29.98,SSW,203,1.0,3.0,36,0.00,,CLR,0.00,VWS V12.07,2013-05-07 15:10:00,
2013-05-07 10:12:00,66.8,39.0,29.98,SSW,203,1.0,3.0,36,0.00,,CLR,0.00,VWS V12.07,2013-05-07 15:12:00,
2013-05-07 10:13:00,66.9,39.1,29.97,SSW,203,0.0,3.0,36,0.00,,CLR,0.00,VWS V12.07,2013-05-07 15:13:00,
2013-05-07 10:14:00,67.1,38.6,29.97,SSW,203,1.0,3.0,35,0.00,,CLR,0.00,VWS V12.07,2013-05-07 15:14:00,
2013-05-07 10:15:00,67.1,38.6,29.97,South,180,1.0,3.0,35,0.00,,CLR,0.00,VWS V12.07,2013-05-07 15:15:00,
2013-05-07 10:17:00,67.4,38.8,29.97,South,183,2.0,3.0,35,0.00,,CLR,0.00,VWS V12.07,2013-05-07 15:17:00,
2013-05-07 10:18:00,67.4,38.8,29.97,South,183,1.0,4.0,35,0.00,,CLR,0.00,VWS V12.07,2013-05-07 15:18:00,
2013-05-07 10:19:00,67.4,38.8,29.97,South,185,3.0,4.0,35,0.00,,CLR,0.00,VWS V12.07,2013-05-07 15:19:00,
2013-05-07 10:20:00,67.4,38.8,29.97,SSW,193,1.0,4.0,35,0.00,,CLR,0.00,VWS V12.07,2013-05-07 15:20:00,
2013-05-07 10:22:00,67.6,38.3,29.97,South,186,3.0,4.0,34,0.00,,CLR,0.00,VWS V12.07,2013-05-07 15:22:00,
2013-05-07 10:23:00,67.6,39.0,29.97,South,186,1.0,4.0,35,0.00,,CLR,0.00,VWS V12.07,2013-05-07 15:23:00,
2013-05-07 10:24:00,67.6,39.0,29.97,South,185,1.0,4.0,35,0.00,,CLR,0.00,VWS V12.07,2013-05-07 15:24:00,
2013-05-07 10:26:00,67.8,38.4,29.97,SSE,151,3.0,4.0,34,0.00,,CLR,0.00,VWS V12.07,2013-05-07 15:26:00,
2013-05-07 10:28:00,67.8,38.4,29.97,SSE,151,1.0,4.0,34,0.00,,CLR,0.00,VWS V12.07,2013-05-07 15:28:00,
2013-05-07 10:29:00,67.8,38.4,29.97,SSE,151,1.0,4.0,34,0.00,,CLR,0.00,VWS V12.07,2013-05-07 15:29:00,
2013-05-07 10:31:00,67.8,38.4,29.97,SSE,164,2.0,4.0,34,0.00,,CLR,0.00,VWS V12.07,2013-05-07 15:31:00,
2013-05-07 10:33:00,67.8,38.4,29.97,SSE,162,2.0,4.0,34,0.00,,CLR,0.00,VWS V12.07,2013-05-07 15:33:00,
2013-05-07 10:34:00,67.8,38.4,29.97,SSE,162,2.0,4.0,34,0.00,,CLR,0.00,VWS V12.07,2013-05-07 15:34:00,
2013-05-07 10:35:00,67.9,39.3,29.97,SSE,165,1.0,4.0,35,0.00,,CLR,0.00,VWS V12.07,2013-05-07 15:35:00,
2013-05-07 10:36:00,68.1,38.7,29.97,SSE,165,1.0,4.0,34,0.00,,CLR,0.00,VWS V12.07,2013-05-07 15:36:00,
2013-05-07 10:37:00,68.3,38.9,29.97,SSE,165,2.0,4.0,34,0.00,,CLR,0.00,VWS V12.07,2013-05-07 15:37:00,
2013-05-07 10:39:00,68.3,38.1,29.97,SSE,165,2.0,3.0,33,0.00,,CLR,0.00,VWS V12.07,2013-05-07 15:39:00,
2013-05-07 10:41:00,68.4,38.2,29.97,SSW,199,1.0,4.0,33,0.00,,CLR,0.00,VWS V12.07,2013-05-07 15:41:00,
2013-05-07 10:42:00,68.4,38.2,29.97,SSW,199,0.0,4.0,33,0.00,,CLR,0.00,VWS V12.07,2013-05-07 15:42:00,
2013-05-07 10:44:00,68.6,38.4,29.96,SSE,160,3.0,4.0,33,0.00,,CLR,0.00,VWS V12.07,2013-05-07 15:44:00,
2013-05-07 10:46:00,68.6,38.4,29.96,South,177,3.0,4.0,33,0.00,,CLR,0.00,VWS V12.07,2013-05-07 15:46:00,
2013-05-07 10:47:00,68.6,38.4,29.96,South,177,2.0,4.0,33,0.00,,CLR,0.00,VWS V12.07,2013-05-07 15:47:00,
2013-05-07 10:49:00,68.6,38.4,29.96,South,177,1.0,4.0,33,0.00,,CLR,0.00,VWS V12.07,2013-05-07 15:49:00,
2013-05-07 10:52:00,68.6,38.4,29.96,SSW,198,1.0,5.0,33,0.00,,CLR,0.00,VWS V12.07,2013-05-07 15:52:00,
2013-05-07 10:53:00,68.6,38.4,29.96,SSW,198,2.0,0.0,33,0.00,,CLR,0.00,VWS V12.07,2013-05-07 15:53:00,
2013-05-07 10:54:00,68.4,38.2,29.96,SSW,198,3.0,5.0,33,0.00,,CLR,0.00,VWS V12.07,2013-05-07 15:54:00,
2013-05-07 10:55:00,68.6,38.4,29.96,SSW,198,3.0,5.0,33,0.00,,CLR,0.00,VWS V12.07,2013-05-07 15:55:00,
2013-05-07 10:57:00,68.8,38.5,29.96,SSW,198,3.0,5.0,33,0.00,,CLR,0.00,VWS V12.07,2013-05-07 15:57:00,
2013-05-07 10:58:00,68.9,38.6,29.96,SSW,198,2.0,5.0,33,0.00,,CLR,0.00,VWS V12.07,2013-05-07 15:58:00,
2013-05-07 10:59:00,69.1,38.8,29.96,SSW,198,3.0,4.0,33,0.00,,CLR,0.00,VWS V12.07,2013-05-07 15:59:00,
2013-05-07 11:00:00,69.1,38.0,29.96,SSW,198,0.0,4.0,32,0.00,,CLR,0.00,VWS V12.07,2013-05-07 16:00:00,
2013-05-07 11:02:00,69.3,38.2,29.96,SSW,198,3.0,4.0,32,0.00,,CLR,0.00,VWS V12.07,2013-05-07 16:02:00,
2013-05-07 11:03:00,69.6,38.5,29.96,SSW,199,3.0,4.0,32,0.00,,CLR,0.00,VWS V12.07,2013-05-07 16:03:00,
2013-05-07 11:04:00,69.6,37.7,29.96,SSW,198,4.0,4.0,31,0.00,,CLR,0.00,VWS V12.07,2013-05-07 16:04:00,
2013-05-07 11:06:00,69.4,38.3,29.96,SSW,207,3.0,4.0,32,0.00,,CLR,0.00,VWS V12.07,2013-05-07 16:06:00,
2013-05-07 11:08:00,69.1,38.0,29.96,SSW,208,2.0,5.0,32,0.00,,CLR,0.00,VWS V12.07,2013-05-07 16:08:00,
2013-05-07 11:09:00,68.9,37.8,29.96,South,191,3.0,5.0,32,0.00,,CLR,0.00,VWS V12.07,2013-05-07 16:09:00,
2013-05-07 11:11:00,69.1,38.0,29.96,SSW,197,2.0,5.0,32,0.00,,CLR,0.00,VWS V12.07,2013-05-07 16:11:00,
2013-05-07 11:13:00,69.6,37.7,29.96,SSW,204,3.0,5.0,31,0.00,,CLR,0.00,VWS V12.07,2013-05-07 16:13:00,
2013-05-07 11:14:00,69.6,37.7,29.96,SSW,204,4.0,5.0,31,0.00,,CLR,0.00,VWS V12.07,2013-05-07 16:14:00,
2013-05-07 11:16:00,69.4,37.5,29.96,SSW,207,4.0,5.0,31,0.00,,CLR,0.00,VWS V12.07,2013-05-07 16:16:00,
2013-05-07 11:18:00,69.6,38.5,29.96,SSW,211,4.0,5.0,32,0.00,,CLR,0.00,VWS V12.07,2013-05-07 16:18:00,
2013-05-07 11:19:00,69.8,38.6,29.96,SSW,212,3.0,5.0,32,0.00,,CLR,0.00,VWS V12.07,2013-05-07 16:19:00,
2013-05-07 11:20:00,69.8,37.8,29.96,SSW,211,4.0,5.0,31,0.00,,CLR,0.00,VWS V12.07,2013-05-07 16:20:00,
2013-05-07 11:21:00,69.9,37.9,29.96,SSW,212,4.0,5.0,31,0.00,,CLR,0.00,VWS V12.07,2013-05-07 16:21:00,
2013-05-07 11:24:00,70.3,38.3,29.96,SSW,212,2.0,5.0,31,0.00,,CLR,0.00,VWS V12.07,2013-05-07 16:24:00,
2013-05-07 11:26:00,70.3,37.4,29.96,SW,214,3.0,5.0,30,0.00,,CLR,0.00,VWS V12.07,2013-05-07 16:26:00,
2013-05-07 11:27:00,70.3,38.3,29.96,SW,214,2.0,5.0,31,0.00,,CLR,0.00,VWS V12.07,2013-05-07 16:27:00,
2013-05-07 11:29:00,70.4,38.3,29.96,SW,214,3.0,4.0,31,0.00,,CLR,0.00,VWS V12.07,2013-05-07 16:29:00,
2013-05-07 11:30:00,70.4,37.5,29.96,SW,214,0.0,4.0,30,0.00,,CLR,0.00,VWS V12.07,2013-05-07 16:30:00,
2013-05-07 11:31:00,70.6,37.7,29.96,SSE,157,3.0,4.0,30,0.00,,CLR,0.00,VWS V12.07,2013-05-07 16:31:00,
2013-05-07 11:33:00,70.4,36.7,29.96,SSE,157,2.0,4.0,29,0.00,,CLR,0.00,VWS V12.07,2013-05-07 16:33:00,
2013-05-07 11:34:00,70.6,37.7,29.96,SSW,201,4.0,4.0,30,0.00,,CLR,0.00,VWS V12.07,2013-05-07 16:34:00,
2013-05-07 11:35:00,70.6,37.7,29.96,SSW,201,4.0,4.0,30,0.00,,CLR,0.00,VWS V12.07,2013-05-07 16:35:00,
2013-05-07 11:36:00,70.8,37.0,29.96,SSW,201,2.0,4.0,29,0.00,,CLR,0.00,VWS V12.07,2013-05-07 16:36:00,
2013-05-07 11:38:00,70.9,37.1,29.96,SSW,200,1.0,0.0,29,0.00,,CLR,0.00,VWS V12.07,2013-05-07 16:38:00,
2013-05-07 11:39:00,71.1,36.4,29.96,SSW,200,0.0,4.0,28,0.00,,CLR,0.00,VWS V12.07,2013-05-07 16:39:00,
2013-05-07 11:40:00,71.1,36.4,29.96,SSW,200,0.0,4.0,28,0.00,,CLR,0.00,VWS V12.07,2013-05-07 16:40:00,
2013-05-07 11:41:00,71.3,37.4,29.96,SSW,200,3.0,5.0,29,0.00,,CLR,0.00,VWS V12.07,2013-05-07 16:41:00,
2013-05-07 11:43:00,71.1,37.3,29.96,SSW,200,0.0,5.0,29,0.00,,CLR,0.00,VWS V12.07,2013-05-07 16:43:00,
2013-05-07 11:44:00,71.3,38.3,29.95,SSW,205,4.0,5.0,30,0.00,,CLR,0.00,VWS V12.07,2013-05-07 16:44:00,
2013-05-07 11:45:00,71.3,38.3,29.95,SSW,205,3.0,5.0,30,0.00,,CLR,0.00,VWS V12.07,2013-05-07 16:45:00,
2013-05-07 11:46:00,71.3,37.4,29.95,SSW,207,1.0,5.0,29,0.00,,CLR,0.00,VWS V12.07,2013-05-07 16:46:00,
2013-05-07 11:48:00,71.3,36.5,29.95,SSW,207,1.0,5.0,28,0.00,,CLR,0.00,VWS V12.07,2013-05-07 16:48:00,
2013-05-07 11:50:00,71.8,37.9,29.95,SSW,207,1.0,5.0,29,0.00,,CLR,0.00,VWS V12.07,2013-05-07 16:50:00,
2013-05-07 11:52:00,72.3,37.4,29.95,SSW,211,4.0,5.0,28,0.00,,CLR,0.00,VWS V12.07,2013-05-07 16:52:00,
2013-05-07 11:53:00,72.3,40.8,29.95,South,174,4.0,5.0,32,0.00,,CLR,0.00,VWS V12.07,2013-05-07 16:53:00,
2013-05-07 11:55:00,72.1,40.7,29.95,SSE,148,3.0,5.0,32,0.00,,CLR,0.00,VWS V12.07,2013-05-07 16:55:00,
2013-05-07 11:56:00,71.8,38.7,29.95,SSE,148,4.0,5.0,30,0.00,,CLR,0.00,VWS V12.07,2013-05-07 16:56:00,
2013-05-07 11:58:00,71.3,36.5,29.96,SSW,198,2.0,5.0,28,0.00,,CLR,0.00,VWS V12.07,2013-05-07 16:58:00,
2013-05-07 12:00:00,71.1,37.3,29.96,SSW,193,3.0,5.0,29,0.00,,CLR,0.00,VWS V12.07,2013-05-07 17:00:00,
2013-05-07 12:01:00,71.1,37.3,29.96,SSW,197,3.0,5.0,29,0.00,,CLR,0.00,VWS V12.07,2013-05-07 17:01:00,
2013-05-07 12:03:00,71.1,39.0,29.96,SSW,206,3.0,5.0,31,0.00,,CLR,0.00,VWS V12.07,2013-05-07 17:03:00,
2013-05-07 12:04:00,71.1,37.3,29.96,SSW,206,1.0,5.0,29,0.00,,CLR,0.00,VWS V12.07,2013-05-07 17:04:00,
2013-05-07 12:06:00,71.1,37.3,29.96,SSW,206,4.0,5.0,29,0.00,,CLR,0.00,VWS V12.07,2013-05-07 17:06:00,
2013-05-07 12:07:00,70.9,37.1,29.96,SSW,206,2.0,5.0,29,0.00,,CLR,0.00,VWS V12.07,2013-05-07 17:07:00,
2013-05-07 12:08:00,70.9,37.1,29.96,SSW,206,4.0,5.0,29,0.00,,CLR,0.00,VWS V12.07,2013-05-07 17:08:00,
2013-05-07 12:09:00,71.1,37.3,29.96,SSW,206,0.0,4.0,29,0.00,,CLR,0.00,VWS V12.07,2013-05-07 17:09:00,
2013-05-07 12:11:00,71.5,36.7,29.96,SSW,206,3.0,4.0,28,0.00,,CLR,0.00,VWS V12.07,2013-05-07 17:11:00,
2013-05-07 12:13:00,72.5,37.6,29.96,WSW,237,4.0,5.0,28,0.00,,CLR,0.00,VWS V12.07,2013-05-07 17:13:00,
2013-05-07 12:14:00,72.5,37.6,29.95,SW,225,4.0,5.0,28,0.00,,CLR,0.00,VWS V12.07,2013-05-07 17:14:00,
2013-05-07 12:16:00,73.0,37.1,29.95,SSW,200,2.0,6.0,27,0.00,,CLR,0.00,VWS V12.07,2013-05-07 17:16:00,
2013-05-07 12:18:00,72.7,37.8,29.95,SSW,206,2.0,6.0,28,0.00,,CLR,0.00,VWS V12.07,2013-05-07 17:18:00,
2013-05-07 12:19:00,72.5,37.6,29.95,SSW,206,0.0,6.0,28,0.00,,CLR,0.00,VWS V12.07,2013-05-07 17:19:00,
2013-05-07 12:20:00,72.5,37.6,29.95,SSW,206,1.0,6.0,28,0.00,,CLR,0.00,VWS V12.07,2013-05-07 17:20:00,
2013-05-07 12:22:00,72.1,37.2,29.95,SSW,206,2.0,6.0,28,0.00,,CLR,0.00,VWS V12.07,2013-05-07 17:22:00,
2013-05-07 12:23:00,71.8,37.0,29.95,SSW,206,0.0,6.0,28,0.00,,CLR,0.00,VWS V12.07,2013-05-07 17:23:00,
2013-05-07 12:24:00,71.8,37.0,29.95,SSW,206,2.0,6.0,28,0.00,,CLR,0.00,VWS V12.07,2013-05-07 17:24:00,
2013-05-07 12:25:00,71.6,37.7,29.95,SSW,206,2.0,6.0,29,0.00,,CLR,0.00,VWS V12.07,2013-05-07 17:25:00,
2013-05-07 12:27:00,71.3,38.3,29.95,SSW,204,4.0,6.0,30,0.00,,CLR,0.00,VWS V12.07,2013-05-07 17:27:00,
2013-05-07 12:28:00,70.8,36.1,29.95,SSW,204,0.0,6.0,28,0.00,,CLR,0.00,VWS V12.07,2013-05-07 17:28:00,
2013-05-07 12:30:00,70.8,37.0,29.95,SSE,155,3.0,4.0,29,0.00,,CLR,0.00,VWS V12.07,2013-05-07 17:30:00,
2013-05-07 12:32:00,71.1,37.3,29.95,SSE,155,3.0,4.0,29,0.00,,CLR,0.00,VWS V12.07,2013-05-07 17:32:00,
2013-05-07 12:34:00,71.1,38.1,29.95,SSE,158,2.0,5.0,30,0.00,,CLR,0.00,VWS V12.07,2013-05-07 17:34:00,
2013-05-07 12:35:00,71.1,38.1,29.95,SSE,158,1.0,5.0,30,0.00,,CLR,0.00,VWS V12.07,2013-05-07 17:35:00,
2013-05-07 12:36:00,71.1,36.4,29.95,SW,219,4.0,5.0,28,0.00,,CLR,0.00,VWS V12.07,2013-05-07 17:36:00,
2013-05-07 12:37:00,71.3,36.5,29.95,SW,222,2.0,5.0,28,0.00,,CLR,0.00,VWS V12.07,2013-05-07 17:37:00,
2013-05-07 12:40:00,71.5,36.7,29.95,SW,222,1.0,5.0,28,0.00,,CLR,0.00,VWS V12.07,2013-05-07 17:40:00,
2013-05-07 12:41:00,71.3,36.5,29.95,SW,222,3.0,5.0,28,0.00,,CLR,0.00,VWS V12.07,2013-05-07 17:41:00,
2013-05-07 12:42:00,71.3,36.5,29.95,SW,222,3.0,5.0,28,0.00,,CLR,0.00,VWS V12.07,2013-05-07 17:42:00,
2013-05-07 12:43:00,71.1,36.4,29.95,SW,222,2.0,5.0,28,0.00,,CLR,0.00,VWS V12.07,2013-05-07 17:43:00,
2013-05-07 12:45:00,71.5,36.7,29.95,SSW,196,4.0,5.0,28,0.00,,CLR,0.00,VWS V12.07,2013-05-07 17:45:00,
2013-05-07 12:46:00,71.6,35.9,29.95,SSW,196,4.0,5.0,27,0.00,,CLR,0.00,VWS V12.07,2013-05-07 17:46:00,
2013-05-07 12:47:00,71.8,36.0,29.95,SSW,210,3.0,5.0,27,0.00,,CLR,0.00,VWS V12.07,2013-05-07 17:47:00,
2013-05-07 12:48:00,72.0,36.2,29.95,SSW,210,2.0,5.0,27,0.00,,CLR,0.00,VWS V12.07,2013-05-07 17:48:00,
2013-05-07 12:50:00,72.3,36.5,29.95,SSW,201,2.0,6.0,27,0.00,,CLR,0.00,VWS V12.07,2013-05-07 17:50:00,
2013-05-07 12:52:00,72.5,36.7,29.95,South,181,3.0,6.0,27,0.00,,CLR,0.00,VWS V12.07,2013-05-07 17:52:00,
2013-05-07 12:53:00,72.8,36.0,29.95,SSE,161,4.0,6.0,26,0.00,,CLR,0.00,VWS V12.07,2013-05-07 17:53:00,
2013-05-07 12:54:00,73.0,37.1,29.95,SW,219,5.0,7.0,27,0.00,,CLR,0.00,VWS V12.07,2013-05-07 17:54:00,
2013-05-07 12:56:00,73.3,36.4,29.95,SSW,201,6.0,6.0,26,0.00,,CLR,0.00,VWS V12.07,2013-05-07 17:56:00,
2013-05-07 12:57:00,73.3,36.4,29.95,SW,216,4.0,6.0,26,0.00,,CLR,0.00,VWS V12.07,2013-05-07 17:57:00,
2013-05-07 12:58:00,73.5,37.5,29.95,SW,215,3.0,6.0,27,0.00,,CLR,0.00,VWS V12.07,2013-05-07 17:58:00,
2013-05-07 12:59:00,73.3,36.4,29.94,SW,215,4.0,6.0,26,0.00,,CLR,0.00,VWS V12.07,2013-05-07 17:59:00,
2013-05-07 13:01:00,72.8,36.9,29.94,SSW,207,3.0,6.0,27,0.00,,CLR,0.00,VWS V12.07,2013-05-07 18:01:00,
2013-05-07 13:02:00,72.8,36.9,29.94,SW,214,3.0,6.0,27,0.00,,CLR,0.00,VWS V12.07,2013-05-07 18:02:00,
2013-05-07 13:03:00,72.8,36.0,29.94,SW,214,1.0,6.0,26,0.00,,CLR,0.00,VWS V12.07,2013-05-07 18:03:00,
2013-05-07 13:04:00,72.8,36.0,29.94,South,186,2.0,6.0,26,0.00,,CLR,0.00,VWS V12.07,2013-05-07 18:04:00,
2013-05-07 13:06:00,72.7,37.8,29.94,SSW,200,2.0,3.0,28,0.00,,CLR,0.00,VWS V12.07,2013-05-07 18:06:00,
2013-05-07 13:07:00,72.5,36.7,29.94,SSW,200,1.0,3.0,27,0.00,,CLR,0.00,VWS V12.07,2013-05-07 18:07:00,
2013-05-07 13:08:00,72.3,36.5,29.94,SSW,200,1.0,3.0,27,0.00,,CLR,0.00,VWS V12.07,2013-05-07 18:08:00,
2013-05-07 13:09:00,72.3,36.5,29.94,SSW,200,1.0,3.0,27,0.00,,CLR,0.00,VWS V12.07,2013-05-07 18:09:00,
2013-05-07 13:10:00,72.1,36.3,29.94,SSW,200,1.0,3.0,27,0.00,,CLR,0.00,VWS V12.07,2013-05-07 18:10:00,
2013-05-07 13:12:00,72.1,37.2,29.94,SSW,200,0.0,3.0,28,0.00,,CLR,0.00,VWS V12.07,2013-05-07 18:12:00,
2013-05-07 13:14:00,72.7,36.8,29.94,SSW,200,0.0,3.0,27,0.00,,CLR,0.00,VWS V12.07,2013-05-07 18:14:00,
2013-05-07 13:15:00,72.8,36.9,29.94,South,190,1.0,3.0,27,0.00,,CLR,0.00,VWS V12.07,2013-05-07 18:15:00,
2013-05-07 13:17:00,73.2,36.3,29.94,NE,53,4.0,7.0,26,0.00,,CLR,0.00,VWS V12.07,2013-05-07 18:17:00,
2013-05-07 13:19:00,73.5,37.5,29.94,NE,42,0.0,7.0,27,0.00,,CLR,0.00,VWS V12.07,2013-05-07 18:19:00,
2013-05-07 13:20:00,73.7,37.7,29.94,NE,42,0.0,7.0,27,0.00,,CLR,0.00,VWS V12.07,2013-05-07 18:20:00,
2013-05-07 13:22:00,74.0,36.0,29.94,NNE,20,0.0,7.0,25,0.00,,CLR,0.00,VWS V12.07,2013-05-07 18:22:00,
2013-05-07 13:25:00,73.5,36.5,29.94,East,92,3.0,3.0,26,0.00,,CLR,0.00,VWS V12.07,2013-05-07 18:25:00,
2013-05-07 13:27:00,73.2,36.3,29.94,SSE,162,0.0,4.0,26,0.00,,CLR,0.00,VWS V12.07,2013-05-07 18:27:00,
2013-05-07 13:28:00,73.3,37.3,29.94,ESE,114,4.0,4.0,27,0.00,,CLR,0.00,VWS V12.07,2013-05-07 18:28:00,
2013-05-07 13:30:00,73.7,36.7,29.93,ESE,113,0.0,4.0,26,0.00,,CLR,0.00,VWS V12.07,2013-05-07 18:30:00,
2013-05-07 13:32:00,74.0,36.0,29.93,East,96,0.0,4.0,25,0.00,,CLR,0.00,VWS V12.07,2013-05-07 18:32:00,
2013-05-07 13:33:00,74.2,36.2,29.93,East,96,1.0,4.0,25,0.00,,CLR,0.00,VWS V12.07,2013-05-07 18:33:00,
2013-05-07 13:35:00,75.1,36.9,29.93,ESE,105,1.0,4.0,25,0.00,,CLR,0.00,VWS V12.07,2013-05-07 18:35:00,
2013-05-07 13:39:00,74.9,36.7,29.93,SSE,165,3.0,5.0,25,0.00,,CLR,0.00,VWS V12.07,2013-05-07 18:39:00,
2013-05-07 13:40:00,74.6,36.5,29.93,SSE,168,1.0,5.0,25,0.00,,CLR,0.00,VWS V12.07,2013-05-07 18:40:00,
2013-05-07 13:41:00,74.6,35.5,29.93,SSE,162,2.0,5.0,24,0.00,,CLR,0.00,VWS V12.07,2013-05-07 18:41:00,
2013-05-07 13:44:00,74.4,36.3,29.93,South,177,3.0,5.0,25,0.00,,CLR,0.00,VWS V12.07,2013-05-07 18:44:00,
2013-05-07 13:45:00,74.4,35.3,29.93,SSW,197,0.0,5.0,24,0.00,,CLR,0.00,VWS V12.07,2013-05-07 18:45:00,
2013-05-07 13:46:00,74.6,35.5,29.93,SSW,197,0.0,5.0,24,0.00,,CLR,0.00,VWS V12.07,2013-05-07 18:46:00,
2013-05-07 13:49:00,74.2,35.1,29.93,South,184,1.0,5.0,24,0.00,,CLR,0.00,VWS V12.07,2013-05-07 18:49:00,
2013-05-07 13:51:00,73.9,35.9,29.93,SSW,207,3.0,5.0,25,0.00,,SCT100,0.00,VWS V12.07,2013-05-07 18:51:00,
2013-05-07 13:54:00,73.2,34.3,29.93,South,181,1.0,5.0,24,0.00,,SCT100,0.00,VWS V12.07,2013-05-07 18:54:00,
2013-05-07 13:55:00,73.2,34.3,29.93,SSE,156,4.0,4.0,24,0.00,,SCT100,0.00,VWS V12.07,2013-05-07 18:55:00,
2013-05-07 13:56:00,73.2,35.3,29.93,SSE,155,0.0,4.0,25,0.00,,SCT100,0.00,VWS V12.07,2013-05-07 18:56:00,
2013-05-07 13:58:00,73.9,34.9,29.92,SW,228,2.0,6.0,24,0.00,,SCT100,0.00,VWS V12.07,2013-05-07 18:58:00,
2013-05-07 13:59:00,74.0,35.0,29.92,SW,228,3.0,6.0,24,0.00,,SCT100,0.00,VWS V12.07,2013-05-07 18:59:00,
2013-05-07 14:00:00,74.0,33.9,29.92,SW,214,3.0,6.0,23,0.00,,SCT100,0.00,VWS V12.07,2013-05-07 19:00:00,
2013-05-07 14:01:00,74.0,35.0,29.92,SSW,213,2.0,6.0,24,0.00,,SCT100,0.00,VWS V12.07,2013-05-07 19:01:00,
2013-05-07 14:04:00,73.9,34.9,29.92,SW,217,5.0,6.0,24,0.00,,SCT100,0.00,VWS V12.07,2013-05-07 19:04:00,
2013-05-07 14:05:00,73.9,35.9,29.92,SSW,203,3.0,6.0,25,0.00,,SCT100,0.00,VWS V12.07,2013-05-07 19:05:00,
2013-05-07 14:06:00,73.9,35.9,29.92,SSW,203,3.0,6.0,25,0.00,,SCT100,0.00,VWS V12.07,2013-05-07 19:06:00,
2013-05-07 14:09:00,74.0,37.0,29.92,SW,235,4.0,5.0,26,0.00,,SCT100,0.00,VWS V12.07,2013-05-07 19:09:00,
2013-05-07 14:11:00,73.7,34.7,29.92,SW,235,1.0,5.0,24,0.00,,SCT100,0.00,VWS V12.07,2013-05-07 19:11:00,
2013-05-07 14:12:00,73.9,34.9,29.92,SW,235,2.0,5.0,24,0.00,,SCT100,0.00,VWS V12.07,2013-05-07 19:12:00,
2013-05-07 14:14:00,74.2,35.1,29.92,SW,218,2.0,5.0,24,0.00,,SCT100,0.00,VWS V12.07,2013-05-07 19:14:00,
2013-05-07 14:16:00,74.9,35.7,29.92,SW,218,5.0,6.0,24,0.00,,SCT100,0.00,VWS V12.07,2013-05-07 19:16:00,
2013-05-07 14:17:00,74.7,33.4,29.92,SSW,212,3.0,6.0,22,0.00,,SCT100,0.00,VWS V12.07,2013-05-07 19:17:00,
2013-05-07 14:20:00,74.6,34.4,29.92,SSW,204,3.0,6.0,23,0.00,,SCT100,0.00,VWS V12.07,2013-05-07 19:20:00,
2013-05-07 14:21:00,74.7,34.5,29.92,SSE,165,4.0,6.0,23,0.00,,SCT100,0.00,VWS V12.07,2013-05-07 19:21:00,
2013-05-07 14:22:00,74.6,35.5,29.92,SSE,159,2.0,6.0,24,0.00,,SCT100,0.00,VWS V12.07,2013-05-07 19:22:00,
2013-05-07 14:25:00,74.6,34.4,29.92,SSE,162,4.0,6.0,23,0.00,,SCT100,0.00,VWS V12.07,2013-05-07 19:25:00,
2013-05-07 14:26:00,74.4,35.3,29.92,SSE,165,4.0,6.0,24,0.00,,SCT100,0.00,VWS V12.07,2013-05-07 19:26:00,
2013-05-07 14:28:00,74.2,34.1,29.92,South,172,4.0,6.0,23,0.00,,SCT100,0.00,VWS V12.07,2013-05-07 19:28:00,
2013-05-07 14:31:00,74.9,35.7,29.92,South,181,4.0,5.0,24,0.00,,SCT100,0.00,VWS V12.07,2013-05-07 19:31:00,
2013-05-07 14:32:00,74.9,35.7,29.92,South,189,4.0,5.0,24,0.00,,SCT100,0.00,VWS V12.07,2013-05-07 19:32:00,
2013-05-07 14:33:00,75.1,35.9,29.92,South,189,1.0,5.0,24,0.00,,SCT100,0.00,VWS V12.07,2013-05-07 19:33:00,
2013-05-07 14:36:00,76.0,35.6,29.92,South,186,2.0,5.0,23,0.00,,SCT100,0.00,VWS V12.07,2013-05-07 19:36:00,
2013-05-07 14:37:00,76.0,35.6,29.92,South,184,2.0,5.0,23,0.00,,SCT100,0.00,VWS V12.07,2013-05-07 19:37:00,
2013-05-07 14:38:00,76.0,34.5,29.92,SSW,195,3.0,5.0,22,0.00,,OVC100,0.00,VWS V12.07,2013-05-07 19:38:00,
2013-05-07 14:42:00,75.1,34.8,29.92,SSW,203,3.0,5.0,23,0.00,,OVC100,0.00,VWS V12.07,2013-05-07 19:42:00,
2013-05-07 14:43:00,75.1,34.8,29.92,SSW,207,4.0,5.0,23,0.00,,OVC100,0.00,VWS V12.07,2013-05-07 19:43:00,
2013-05-07 14:47:00,74.6,35.5,29.91,South,175,1.0,5.0,24,0.00,,OVC100,0.00,VWS V12.07,2013-05-07 19:47:00,
2013-05-07 14:48:00,74.7,35.5,29.91,South,175,2.0,5.0,24,0.00,,OVC100,0.00,VWS V12.07,2013-05-07 19:48:00,
2013-05-07 14:52:00,74.6,34.4,29.91,SW,219,5.0,5.0,23,0.00,,OVC100,0.00,VWS V12.07,2013-05-07 19:52:00,
2013-05-07 14:53:00,74.4,34.2,29.91,SW,220,3.0,5.0,23,0.00,,OVC100,0.00,VWS V12.07,2013-05-07 19:53:00,
2013-05-07 14:54:00,74.4,34.2,29.91,SW,219,3.0,5.0,23,0.00,,OVC100,0.00,VWS V12.07,2013-05-07 19:54:00,
2013-05-07 14:57:00,74.7,34.5,29.91,SW,231,2.0,5.0,23,0.00,,BKN100,0.00,VWS V12.07,2013-05-07 19:57:00,
2013-05-07 14:58:00,74.9,34.6,29.91,SW,231,0.0,5.0,23,0.00,,BKN100,0.00,VWS V12.07,2013-05-07 19:58:00,
2013-05-07 14:59:00,75.1,33.7,29.90,SSW,202,3.0,5.0,22,0.00,,BKN100,0.00,VWS V12.07,2013-05-07 19:59:00,
2013-05-07 15:02:00,74.9,34.6,29.90,SW,233,0.0,7.0,23,0.00,,BKN100,0.00,VWS V12.07,2013-05-07 20:02:00,
2013-05-07 15:03:00,75.1,33.7,29.90,SW,233,2.0,7.0,22,0.00,,BKN100,0.00,VWS V12.07,2013-05-07 20:03:00,
2013-05-07 15:04:00,75.3,35.0,29.90,South,188,2.0,7.0,23,0.00,,BKN100,0.00,VWS V12.07,2013-05-07 20:04:00,
2013-05-07 15:07:00,75.8,34.3,29.90,SSE,157,3.0,7.0,22,0.00,,BKN100,0.00,VWS V12.07,2013-05-07 20:07:00,
2013-05-07 15:08:00,75.8,34.3,29.90,SSE,167,4.0,0.0,22,0.00,,BKN100,0.00,VWS V12.07,2013-05-07 20:08:00,
2013-05-07 15:09:00,75.4,34.0,29.90,South,191,1.0,5.0,22,0.00,,BKN100,0.00,VWS V12.07,2013-05-07 20:09:00,
2013-05-07 15:12:00,74.6,36.5,29.90,SSW,193,3.0,5.0,25,0.00,,BKN100,0.00,VWS V12.07,2013-05-07 20:12:00,
2013-05-07 15:13:00,74.2,35.1,29.90,SSW,193,4.0,5.0,24,0.00,,BKN100,0.00,VWS V12.07,2013-05-07 20:13:00,
2013-05-07 15:14:00,74.2,35.1,29.90,SSW,193,3.0,5.0,24,0.00,,BKN100,0.00,VWS V12.07,2013-05-07 20:14:00,
2013-05-07 15:15:00,74.2,36.2,29.90,SSW,193,3.0,5.0,25,0.00,,BKN100,0.00,VWS V12.07,2013-05-07 20:15:00,
2013-05-07 15:17:00,74.0,35.0,29.90,SSW,193,3.0,5.0,24,0.00,,BKN100,0.00,VWS V12.07,2013-05-07 20:17:00,
2013-05-07 15:18:00,74.0,35.0,29.90,SSW,193,3.0,5.0,24,0.00,,BKN100,0.00,VWS V12.07,2013-05-07 20:18:00,
2013-05-07 15:19:00,74.0,35.0,29.90,SSW,198,3.0,5.0,24,0.00,,BKN100,0.00,VWS V12.07,2013-05-07 20:19:00,
2013-05-07 15:20:00,74.0,35.0,29.90,SSW,201,3.0,5.0,24,0.00,,BKN100,0.00,VWS V12.07,2013-05-07 20:20:00,
2013-05-07 15:22:00,74.6,35.5,29.90,SSW,203,2.0,5.0,24,0.00,,BKN100,0.00,VWS V12.07,2013-05-07 20:22:00,
2013-05-07 15:23:00,74.6,34.4,29.90,SSW,201,4.0,5.0,23,0.00,,BKN100,0.00,VWS V12.07,2013-05-07 20:23:00,
2013-05-07 15:24:00,74.6,34.4,29.90,SSW,210,2.0,5.0,23,0.00,,BKN100,0.00,VWS V12.07,2013-05-07 20:24:00,
2013-05-07 15:25:00,74.7,34.5,29.90,SSW,209,3.0,5.0,23,0.00,,BKN100,0.00,VWS V12.07,2013-05-07 20:25:00,
2013-05-07 15:28:00,75.1,34.8,29.90,SSW,202,3.0,5.0,23,0.00,,BKN100,0.00,VWS V12.07,2013-05-07 20:28:00,
2013-05-07 15:29:00,75.3,35.0,29.90,South,174,3.0,5.0,23,0.00,,BKN100,0.00,VWS V12.07,2013-05-07 20:29:00,
2013-05-07 15:30:00,75.4,35.1,29.90,South,178,2.0,5.0,23,0.00,,BKN100,0.00,VWS V12.07,2013-05-07 20:30:00,
2013-05-07 15:31:00,75.6,35.2,29.90,South,184,2.0,5.0,23,0.00,,BKN100,0.00,VWS V12.07,2013-05-07 20:31:00,
2013-05-07 15:33:00,75.8,34.3,29.90,SSE,167,3.0,5.0,22,0.00,,BKN100,0.00,VWS V12.07,2013-05-07 20:33:00,
2013-05-07 15:35:00,75.6,35.2,29.90,South,186,3.0,5.0,23,0.00,,BKN100,0.00,VWS V12.07,2013-05-07 20:35:00,
2013-05-07 15:36:00,75.3,35.0,29.90,SSW,202,1.0,5.0,23,0.00,,BKN100,0.00,VWS V12.07,2013-05-07 20:36:00,
2013-05-07 15:38:00,74.9,34.6,29.90,SSW,202,0.0,4.0,23,0.00,,BKN110,0.00,VWS V12.07,2013-05-07 20:38:00,
2013-05-07 15:39:00,74.9,34.6,29.90,SSW,202,2.0,4.0,23,0.00,,BKN110,0.00,VWS V12.07,2013-05-07 20:39:00,
2013-05-07 15:40:00,75.1,34.8,29.90,SSW,202,2.0,4.0,23,0.00,,BKN110,0.00,VWS V12.07,2013-05-07 20:40:00,
2013-05-07 15:41:00,75.3,35.0,29.90,SSW,202,0.0,4.0,23,0.00,,BKN110,0.00,VWS V12.07,2013-05-07 20:41:00,
2013-05-07 15:44:00,75.6,36.3,29.90,South,186,2.0,5.0,24,0.00,,BKN110,0.00,VWS V12.07,2013-05-07 20:44:00,
2013-05-07 15:45:00,75.8,38.5,29.90,South,186,3.0,5.0,26,0.00,,BKN110,0.00,VWS V12.07,2013-05-07 20:45:00,
2013-05-07 15:46:00,75.4,36.1,29.90,South,186,2.0,5.0,24,0.00,,BKN110,0.00,VWS V12.07,2013-05-07 20:46:00,
2013-05-07 15:47:00,75.3,36.0,29.90,South,186,3.0,5.0,24,0.00,,BKN110,0.00,VWS V12.07,2013-05-07 20:47:00,
2013-05-07 15:49:00,74.7,35.5,29.90,South,186,1.0,3.0,24,0.00,,BKN110,0.00,VWS V12.07,2013-05-07 20:49:00,
2013-05-07 15:50:00,74.6,35.5,29.90,South,186,0.0,3.0,24,0.00,,OVC110,0.00,VWS V12.07,2013-05-07 20:50:00,
2013-05-07 15:51:00,74.4,34.2,29.90,South,186,0.0,3.0,23,0.00,,OVC110,0.00,VWS V12.07,2013-05-07 20:51:00,
2013-05-07 15:52:00,74.4,35.3,29.90,South,186,0.0,3.0,24,0.00,,OVC110,0.00,VWS V12.07,2013-05-07 20:52:00,
2013-05-07 15:54:00,74.4,35.3,29.90,South,186,0.0,0.0,24,0.00,,OVC110,0.00,VWS V12.07,2013-05-07 20:54:00,
2013-05-07 15:55:00,74.4,35.3,29.90,South,186,3.0,4.0,24,0.00,,OVC110,0.00,VWS V12.07,2013-05-07 20:55:00,
2013-05-07 15:56:00,74.4,35.3,29.90,South,186,1.0,4.0,24,0.00,,OVC110,0.00,VWS V12.07,2013-05-07 20:56:00,
2013-05-07 15:57:00,74.4,34.2,29.90,South,186,0.0,4.0,23,0.00,,OVC110,0.00,VWS V12.07,2013-05-07 20:57:00,
2013-05-07 16:00:00,74.4,35.3,29.91,South,186,0.0,4.0,24,0.00,,OVC110,0.00,VWS V12.07,2013-05-07 21:00:00,
2013-05-07 16:02:00,74.2,36.2,29.91,South,186,0.0,4.0,25,0.00,,OVC110,0.00,VWS V12.07,2013-05-07 21:02:00,
2013-05-07 16:05:00,73.7,34.7,29.91,South,186,0.0,4.0,24,0.00,,OVC110,0.00,VWS V12.07,2013-05-07 21:05:00,
2013-05-07 16:06:00,73.7,34.7,29.91,South,186,0.0,4.0,24,0.00,,OVC110,0.00,VWS V12.07,2013-05-07 21:06:00,
2013-05-07 16:07:00,73.5,34.5,29.91,South,186,0.0,4.0,24,0.00,,OVC110,0.00,VWS V12.07,2013-05-07 21:07:00,
2013-05-07 16:10:00,73.3,35.4,29.91,South,186,0.0,0.0,25,0.00,,OVC110,0.00,VWS V12.07,2013-05-07 21:10:00,
2013-05-07 16:11:00,73.3,35.4,29.91,South,186,0.0,0.0,25,0.00,,OVC110,0.00,VWS V12.07,2013-05-07 21:11:00,
2013-05-07 16:12:00,73.3,34.4,29.91,South,186,2.0,2.0,24,0.00,,OVC110,0.00,VWS V12.07,2013-05-07 21:12:00,
2013-05-07 16:13:00,73.3,34.4,29.91,South,186,0.0,3.0,24,0.00,,OVC110,0.00,VWS V12.07,2013-05-07 21:13:00,
2013-05-07 16:16:00,73.2,35.3,29.91,South,186,1.0,3.0,25,0.00,,OVC110,0.00,VWS V12.07,2013-05-07 21:16:00,
2013-05-07 16:17:00,73.2,35.3,29.91,South,186,2.0,3.0,25,0.00,,OVC110,0.00,VWS V12.07,2013-05-07 21:17:00,
2013-05-07 16:19:00,73.2,34.3,29.91,South,186,1.0,2.0,24,0.00,,OVC110,0.00,VWS V12.07,2013-05-07 21:19:00,
2013-05-07 16:21:00,73.2,34.3,29.91,South,186,0.0,2.0,24,0.00,,CLR,0.00,VWS V12.07,2013-05-07 21:21:00,
2013-05-07 16:22:00,73.2,34.3,29.91,South,186,1.0,2.0,24,0.00,,CLR,0.00,VWS V12.07,2013-05-07 21:22:00,
2013-05-07 16:24:00,73.0,34.1,29.91,South,186,0.0,3.0,24,0.00,,CLR,0.00,VWS V12.07,2013-05-07 21:24:00,
2013-05-07 16:26:00,73.0,36.1,29.91,South,186,0.0,3.0,26,0.00,,CLR,0.00,VWS V12.07,2013-05-07 21:26:00,
2013-05-07 16:27:00,73.0,36.1,29.91,South,186,1.0,3.0,26,0.00,,CLR,0.00,VWS V12.07,2013-05-07 21:27:00,
2013-05-07 16:30:00,73.2,34.3,29.90,South,186,0.0,2.0,24,0.00,,CLR,0.00,VWS V12.07,2013-05-07 21:30:00,
2013-05-07 16:31:00,73.2,34.3,29.90,South,186,0.0,2.0,24,0.00,,CLR,0.00,VWS V12.07,2013-05-07 21:31:00,
2013-05-07 16:32:00,73.2,34.3,29.90,South,186,1.0,2.0,24,0.00,,CLR,0.00,VWS V12.07,2013-05-07 21:32:00,
2013-05-07 16:35:00,73.3,34.4,29.90,South,186,1.0,2.0,24,0.00,,CLR,0.00,VWS V12.07,2013-05-07 21:35:00,
2013-05-07 16:36:00,73.3,34.4,29.90,South,186,1.0,2.0,24,0.00,,CLR,0.00,VWS V12.07,2013-05-07 21:36:00,
2013-05-07 16:37:00,73.5,34.5,29.90,South,186,2.0,2.0,24,0.00,,CLR,0.00,VWS V12.07,2013-05-07 21:37:00,
2013-05-07 16:40:00,73.3,35.4,29.90,South,186,0.0,3.0,25,0.00,,OVC110,0.00,VWS V12.07,2013-05-07 21:40:00,
2013-05-07 16:41:00,73.3,35.4,29.90,South,186,0.0,3.0,25,0.00,,OVC110,0.00,VWS V12.07,2013-05-07 21:41:00,
2013-05-07 16:42:00,73.3,37.3,29.90,South,186,1.0,3.0,27,0.00,,OVC110,0.00,VWS V12.07,2013-05-07 21:42:00,
2013-05-07 16:43:00,73.2,37.2,29.90,South,186,0.0,3.0,27,0.00,,OVC110,0.00,VWS V12.07,2013-05-07 21:43:00,
2013-05-07 16:46:00,73.0,35.1,29.89,South,186,0.0,3.0,25,0.00,,OVC110,0.00,VWS V12.07,2013-05-07 21:46:00,
2013-05-07 16:47:00,72.8,35.0,29.89,South,186,0.0,3.0,25,0.00,,OVC110,0.00,VWS V12.07,2013-05-07 21:47:00,
2013-05-07 16:48:00,72.7,34.9,29.89,South,186,1.0,1.0,25,0.00,,OVC110,0.00,VWS V12.07,2013-05-07 21:48:00,
2013-05-07 16:51:00,72.5,34.7,29.89,South,186,0.0,2.0,25,0.00,,OVC110,0.00,VWS V12.07,2013-05-07 21:51:00,
2013-05-07 16:52:00,72.3,35.5,29.89,South,184,3.0,3.0,26,0.00,,OVC110,0.00,VWS V12.07,2013-05-07 21:52:00,
2013-05-07 16:53:00,72.3,34.5,29.89,South,184,2.0,3.0,25,0.00,,OVC110,0.00,VWS V12.07,2013-05-07 21:53:00,
2013-05-07 16:54:00,72.3,35.5,29.89,South,184,2.0,3.0,26,0.00,,OVC110,0.00,VWS V12.07,2013-05-07 21:54:00,
2013-05-07 16:56:00,72.3,34.5,29.89,South,184,1.0,4.0,25,0.00,,OVC110,0.00,VWS V12.07,2013-05-07 21:56:00,
2013-05-07 16:57:00,72.5,34.7,29.89,SSW,195,3.0,4.0,25,0.00,,OVC110,0.00,VWS V12.07,2013-05-07 21:57:00,
2013-05-07 16:58:00,72.5,35.7,29.90,SSW,207,0.0,4.0,26,0.00,,OVC110,0.00,VWS V12.07,2013-05-07 21:58:00,
2013-05-07 16:59:00,72.5,35.7,29.90,SE,135,1.0,4.0,26,0.00,,OVC110,0.00,VWS V12.07,2013-05-07 21:59:00,
2013-05-07 17:01:00,72.5,34.7,29.90,SSW,203,2.0,5.0,25,0.00,,OVC110,0.00,VWS V12.07,2013-05-07 22:01:00,
2013-05-07 17:02:00,72.5,34.7,29.90,SSW,195,4.0,5.0,25,0.00,,OVC110,0.00,VWS V12.07,2013-05-07 22:02:00,
2013-05-07 17:03:00,72.5,35.7,29.90,SSW,196,2.0,5.0,26,0.00,,OVC110,0.00,VWS V12.07,2013-05-07 22:03:00,
2013-05-07 17:05:00,72.5,36.7,29.90,SSW,201,3.0,5.0,27,0.00,,OVC110,0.00,VWS V12.07,2013-05-07 22:05:00,
2013-05-07 17:07:00,72.5,36.7,29.90,SSW,200,2.0,5.0,27,0.00,,OVC110,0.00,VWS V12.07,2013-05-07 22:07:00,
2013-05-07 17:08:00,72.5,35.7,29.90,SSW,200,1.0,5.0,26,0.00,,OVC110,0.00,VWS V12.07,2013-05-07 22:08:00,
2013-05-07 17:11:00,72.7,35.9,29.90,SSW,200,2.0,4.0,26,0.00,,OVC110,0.00,VWS V12.07,2013-05-07 22:11:00,
2013-05-07 17:12:00,72.7,35.9,29.90,SSW,200,2.0,4.0,26,0.00,,OVC110,0.00,VWS V12.07,2013-05-07 22:12:00,
2013-05-07 17:13:00,72.7,35.9,29.90,SSW,200,0.0,4.0,26,0.00,,OVC110,0.00,VWS V12.07,2013-05-07 22:13:00,
2013-05-07 17:16:00,72.8,36.9,29.90,South,185,3.0,4.0,27,0.00,,OVC110,0.00,VWS V12.07,2013-05-07 22:16:00,
2013-05-07 17:18:00,72.8,36.0,29.90,South,185,3.0,4.0,26,0.00,,OVC110,0.00,VWS V12.07,2013-05-07 22:18:00,
2013-05-07 17:19:00,72.8,36.0,29.90,South,185,2.0,4.0,26,0.00,,OVC110,0.00,VWS V12.07,2013-05-07 22:19:00,
2013-05-07 17:21:00,72.8,36.9,29.90,South,185,2.0,4.0,27,0.00,,OVC110,0.00,VWS V12.07,2013-05-07 22:21:00,
2013-05-07 17:23:00,72.8,37.8,29.90,South,185,3.0,4.0,28,0.00,,OVC110,0.00,VWS V12.07,2013-05-07 22:23:00,
2013-05-07 17:24:00,72.8,36.9,29.90,South,185,3.0,4.0,27,0.00,,OVC110,0.00,VWS V12.07,2013-05-07 22:24:00,
2013-05-07 17:26:00,72.7,38.6,29.90,South,185,0.0,4.0,29,0.00,,OVC110,0.00,VWS V12.07,2013-05-07 22:26:00,
2013-05-07 17:28:00,72.5,37.6,29.90,South,185,0.0,2.0,28,0.00,,OVC110,0.00,VWS V12.07,2013-05-07 22:28:00,
2013-05-07 17:29:00,72.5,37.6,29.90,South,185,0.0,2.0,28,0.00,,OVC110,0.00,VWS V12.07,2013-05-07 22:29:00,
2013-05-07 17:32:00,72.3,37.4,29.90,South,185,3.0,3.0,28,0.00,,OVC110,0.00,VWS V12.07,2013-05-07 22:32:00,
2013-05-07 17:33:00,72.1,35.4,29.90,SSW,195,2.0,4.0,26,0.00,,OVC110,0.00,VWS V12.07,2013-05-07 22:33:00,
2013-05-07 17:34:00,72.3,35.5,29.90,SSW,195,2.0,4.0,26,0.00,,OVC110,0.00,VWS V12.07,2013-05-07 22:34:00,
2013-05-07 17:37:00,72.7,35.9,29.90,SSW,195,1.0,4.0,26,0.00,,OVC110,0.00,VWS V12.07,2013-05-07 22:37:00,
2013-05-07 17:39:00,72.7,34.9,29.90,SSW,195,2.0,4.0,25,0.00,,SCT110,0.00,VWS V12.07,2013-05-07 22:39:00,
2013-05-07 17:40:00,72.8,36.0,29.90,SSW,195,2.0,4.0,26,0.00,,SCT110,0.00,VWS V12.07,2013-05-07 22:40:00,
2013-05-07 17:43:00,72.8,35.0,29.90,SSW,195,0.0,4.0,25,0.00,,SCT110,0.00,VWS V12.07,2013-05-07 22:43:00,
2013-05-07 17:44:00,72.8,36.0,29.90,SSW,195,1.0,4.0,26,0.00,,SCT110,0.00,VWS V12.07,2013-05-07 22:44:00,
2013-05-07 17:45:00,73.0,36.1,29.90,SSW,195,0.0,4.0,26,0.00,,SCT110,0.00,VWS V12.07,2013-05-07 22:45:00,
2013-05-07 17:46:00,73.0,36.1,29.90,SSW,195,0.0,4.0,26,0.00,,SCT110,0.00,VWS V12.07,2013-05-07 22:46:00,
2013-05-07 17:48:00,73.0,35.1,29.90,SSW,195,0.0,4.0,25,0.00,,SCT110,0.00,VWS V12.07,2013-05-07 22:48:00,
2013-05-07 17:50:00,73.0,36.1,29.90,SSW,195,1.0,3.0,26,0.00,,SCT110,0.00,VWS V12.07,2013-05-07 22:50:00,
2013-05-07 17:51:00,73.0,35.1,29.90,SSW,195,0.0,3.0,25,0.00,,SCT110,0.00,VWS V12.07,2013-05-07 22:51:00,
2013-05-07 17:53:00,73.0,36.1,29.90,SSW,195,0.0,3.0,26,0.00,,SCT110,0.00,VWS V12.07,2013-05-07 22:53:00,
2013-05-07 17:55:00,73.0,36.1,29.90,SSW,195,0.0,3.0,26,0.00,,SCT110,0.00,VWS V12.07,2013-05-07 22:55:00,
2013-05-07 17:56:00,73.0,36.1,29.90,SSW,195,1.0,3.0,26,0.00,,SCT110,0.00,VWS V12.07,2013-05-07 22:56:00,
2013-05-07 17:57:00,73.0,35.1,29.90,SSW,195,2.0,3.0,25,0.00,,SCT110,0.00,VWS V12.07,2013-05-07 22:57:00,
2013-05-07 17:58:00,73.0,35.1,29.90,SSW,195,0.0,3.0,25,0.00,,SCT110,0.00,VWS V12.07,2013-05-07 22:58:00,
2013-05-07 18:00:00,73.0,37.1,29.90,SSW,195,0.0,3.0,27,0.00,,SCT110,0.00,VWS V12.07,2013-05-07 23:00:00,
2013-05-07 18:01:00,73.0,36.1,29.90,SSW,195,0.0,3.0,26,0.00,,SCT110,0.00,VWS V12.07,2013-05-07 23:01:00,
2013-05-07 18:02:00,73.0,35.1,29.90,SSW,195,0.0,3.0,25,0.00,,SCT110,0.00,VWS V12.07,2013-05-07 23:02:00,
2013-05-07 18:03:00,73.0,36.1,29.90,SSW,195,0.0,3.0,26,0.00,,SCT110,0.00,VWS V12.07,2013-05-07 23:03:00,
2013-05-07 18:05:00,72.8,36.0,29.90,SSW,195,0.0,3.0,26,0.00,,SCT110,0.00,VWS V12.07,2013-05-07 23:05:00,
2013-05-07 18:06:00,72.8,36.0,29.90,SSW,195,0.0,3.0,26,0.00,,SCT110,0.00,VWS V12.07,2013-05-07 23:06:00,
2013-05-07 18:07:00,73.0,35.1,29.90,SSW,195,0.0,3.0,25,0.00,,SCT110,0.00,VWS V12.07,2013-05-07 23:07:00,
2013-05-07 18:09:00,73.0,36.1,29.90,SSW,195,0.0,0.0,26,0.00,,SCT110,0.00,VWS V12.07,2013-05-07 23:09:00,
2013-05-07 18:10:00,73.0,35.1,29.90,SSW,195,2.0,2.0,25,0.00,,SCT110,0.00,VWS V12.07,2013-05-07 23:10:00,
2013-05-07 18:11:00,73.0,36.1,29.90,SSW,195,1.0,3.0,26,0.00,,SCT110,0.00,VWS V12.07,2013-05-07 23:11:00,
2013-05-07 18:12:00,73.0,37.1,29.90,SSW,195,0.0,3.0,27,0.00,,SCT110,0.00,VWS V12.07,2013-05-07 23:12:00,
2013-05-07 18:14:00,73.0,38.0,29.90,SSW,195,0.0,3.0,28,0.00,,SCT110,0.00,VWS V12.07,2013-05-07 23:14:00,
2013-05-07 18:15:00,72.8,36.9,29.90,SSW,195,0.0,3.0,27,0.00,,SCT110,0.00,VWS V12.07,2013-05-07 23:15:00,
2013-05-07 18:16:00,72.8,37.8,29.90,SSW,195,0.0,3.0,28,0.00,,SCT110,0.00,VWS V12.07,2013-05-07 23:16:00,
2013-05-07 18:18:00,72.7,36.8,29.90,SSW,195,0.0,3.0,27,0.00,,SCT110,0.00,VWS V12.07,2013-05-07 23:18:00,
2013-05-07 18:19:00,72.5,36.7,29.90,SSW,195,0.0,0.0,27,0.00,,SCT110,0.00,VWS V12.07,2013-05-07 23:19:00,
2013-05-07 18:22:00,72.1,36.3,29.90,SSW,195,1.0,3.0,27,0.00,,SCT110,0.00,VWS V12.07,2013-05-07 23:22:00,
2013-05-07 18:23:00,72.0,38.0,29.90,SSW,195,1.0,3.0,29,0.00,,SCT110,0.00,VWS V12.07,2013-05-07 23:23:00,
2013-05-07 18:24:00,71.5,36.7,29.90,SSW,195,0.0,3.0,28,0.00,,SCT110,0.00,VWS V12.07,2013-05-07 23:24:00,
2013-05-07 18:25:00,71.5,36.7,29.90,SSW,195,0.0,3.0,28,0.00,,SCT110,0.00,VWS V12.07,2013-05-07 23:25:00,
2013-05-07 18:27:00,70.8,37.9,29.90,SSW,195,0.0,3.0,30,0.00,,SCT110,0.00,VWS V12.07,2013-05-07 23:27:00,
2013-05-07 18:28:00,70.8,37.9,29.90,SSW,195,0.0,3.0,30,0.00,,SCT110,0.00,VWS V12.07,2013-05-07 23:28:00,
2013-05-07 18:29:00,70.6,36.8,29.90,SSW,195,0.0,0.0,29,0.00,,SCT110,0.00,VWS V12.07,2013-05-07 23:29:00,
2013-05-07 18:30:00,70.6,36.8,29.90,SSW,195,0.0,0.0,29,0.00,,SCT110,0.00,VWS V12.07,2013-05-07 23:30:00,
2013-05-07 18:33:00,70.3,36.6,29.90,SSW,195,0.0,0.0,29,0.00,,SCT110,0.00,VWS V12.07,2013-05-07 23:33:00,
2013-05-07 18:35:00,70.3,37.4,29.90,SSW,195,0.0,0.0,30,0.00,,SCT110,0.00,VWS V12.07,2013-05-07 23:35:00,
2013-05-07 18:38:00,70.3,37.4,29.90,SSW,195,0.0,0.0,30,0.00,,OVC110,0.00,VWS V12.07,2013-05-07 23:38:00,
2013-05-07 18:39:00,70.3,38.3,29.90,SSW,195,0.0,0.0,31,0.00,,OVC110,0.00,VWS V12.07,2013-05-07 23:39:00,
2013-05-07 18:40:00,70.3,38.3,29.90,SSW,195,0.0,0.0,31,0.00,,OVC110,0.00,VWS V12.07,2013-05-07 23:40:00,
2013-05-07 18:41:00,70.3,38.3,29.90,SSW,195,0.0,0.0,31,0.00,,OVC110,0.00,VWS V12.07,2013-05-07 23:41:00,
2013-05-07 18:43:00,70.3,39.9,29.90,SSW,195,0.0,0.0,33,0.00,,OVC110,0.00,VWS V12.07,2013-05-07 23:43:00,
2013-05-07 18:44:00,70.3,39.9,29.90,SSW,195,0.0,0.0,33,0.00,,OVC110,0.00,VWS V12.07,2013-05-07 23:44:00,
2013-05-07 18:45:00,70.1,38.9,29.90,SSW,195,0.0,0.0,32,0.00,,OVC110,0.00,VWS V12.07,2013-05-07 23:45:00,
2013-05-07 18:47:00,69.9,37.1,29.90,SSW,195,0.0,0.0,30,0.00,,OVC110,0.00,VWS V12.07,2013-05-07 23:47:00,
2013-05-07 18:48:00,69.8,36.1,29.90,SSW,195,0.0,0.0,29,0.00,,OVC110,0.00,VWS V12.07,2013-05-07 23:48:00,
2013-05-07 18:49:00,69.8,36.1,29.90,SSW,195,0.0,0.0,29,0.00,,OVC110,0.00,VWS V12.07,2013-05-07 23:49:00,
2013-05-07 18:50:00,69.6,36.0,29.90,SSW,195,0.0,0.0,29,0.00,,OVC110,0.00,VWS V12.07,2013-05-07 23:50:00,
2013-05-07 18:53:00,69.3,35.7,29.90,SSW,195,0.0,0.0,29,0.00,,OVC110,0.00,VWS V12.07,2013-05-07 23:53:00,
2013-05-07 18:54:00,69.1,35.5,29.90,SSW,195,0.0,0.0,29,0.00,,OVC110,0.00,VWS V12.07,2013-05-07 23:54:00,
2013-05-07 18:55:00,69.1,35.5,29.90,SSW,195,0.0,0.0,29,0.00,,OVC110,0.00,VWS V12.07,2013-05-07 23:55:00,
2013-05-07 18:58:00,69.1,35.5,29.90,SSW,195,0.0,0.0,29,0.00,,OVC110,0.00,VWS V12.07,2013-05-07 23:58:00,
2013-05-07 18:59:00,68.6,36.8,29.89,SSW,195,0.0,0.0,31,0.00,,OVC110,0.00,VWS V12.07,2013-05-07 23:59:00,
2013-05-07 19:00:00,68.6,36.8,29.89,SSW,195,0.0,0.0,31,0.00,,OVC110,0.00,VWS V12.07,2013-05-08 00:00:00,
2013-05-07 19:01:00,68.4,36.6,29.89,SSW,195,0.0,0.0,31,0.00,,OVC110,0.00,VWS V12.07,2013-05-08 00:01:00,
2013-05-07 19:03:00,68.3,36.5,29.89,SSW,195,0.0,0.0,31,0.00,,OVC110,0.00,VWS V12.07,2013-05-08 00:03:00,
2013-05-07 19:05:00,68.1,35.5,29.89,SSW,195,0.0,0.0,30,0.00,,OVC110,0.00,VWS V12.07,2013-05-08 00:05:00,
2013-05-07 19:06:00,68.1,36.3,29.89,SSW,195,0.0,0.0,31,0.00,,OVC110,0.00,VWS V12.07,2013-05-08 00:06:00,
2013-05-07 19:08:00,67.9,36.2,29.89,SSW,195,0.0,0.0,31,0.00,,OVC110,0.00,VWS V12.07,2013-05-08 00:08:00,
2013-05-07 19:10:00,67.8,35.3,29.89,SSW,195,0.0,0.0,30,0.00,,OVC110,0.00,VWS V12.07,2013-05-08 00:10:00,
2013-05-07 19:11:00,67.8,35.3,29.89,SSW,195,0.0,0.0,30,0.00,,OVC110,0.00,VWS V12.07,2013-05-08 00:11:00,
2013-05-07 19:13:00,67.8,39.2,29.89,SSW,195,0.0,0.0,35,0.00,,OVC110,0.00,VWS V12.07,2013-05-08 00:13:00,
2013-05-07 19:15:00,67.6,39.0,29.89,SSW,195,0.0,0.0,35,0.00,,OVC110,0.00,VWS V12.07,2013-05-08 00:15:00,
2013-05-07 19:16:00,67.6,37.5,29.89,SSW,195,0.0,0.0,33,0.00,,OVC110,0.00,VWS V12.07,2013-05-08 00:16:00,
2013-05-07 19:19:00,67.6,38.3,29.89,SSW,195,0.0,0.0,34,0.00,,OVC110,0.00,VWS V12.07,2013-05-08 00:19:00,
2013-05-07 19:21:00,67.4,38.8,29.89,SSW,195,0.0,0.0,35,0.00,,OVC110,0.00,VWS V12.07,2013-05-08 00:21:00,
2013-05-07 19:22:00,67.4,38.8,29.89,SSW,195,0.0,0.0,35,0.00,,OVC110,0.00,VWS V12.07,2013-05-08 00:22:00,
2013-05-07 19:24:00,67.3,39.5,29.89,SSW,195,0.0,0.0,36,0.00,,OVC110,0.00,VWS V12.07,2013-05-08 00:24:00,
2013-05-07 19:26:00,67.1,36.3,29.89,SSW,195,0.0,0.0,32,0.00,,OVC110,0.00,VWS V12.07,2013-05-08 00:26:00,
2013-05-07 19:27:00,67.1,36.3,29.89,SSW,195,0.0,0.0,32,0.00,,OVC110,0.00,VWS V12.07,2013-05-08 00:27:00,
2013-05-07 19:29:00,66.9,36.9,29.90,SSW,195,0.0,0.0,33,0.00,,OVC110,0.00,VWS V12.07,2013-05-08 00:29:00,
2013-05-07 19:31:00,66.9,36.9,29.90,SSW,195,0.0,0.0,33,0.00,,OVC110,0.00,VWS V12.07,2013-05-08 00:31:00,
2013-05-07 19:32:00,66.8,36.8,29.90,SSW,195,0.0,0.0,33,0.00,,OVC110,0.00,VWS V12.07,2013-05-08 00:32:00,
2013-05-07 19:33:00,66.8,36.0,29.90,SSW,195,0.0,0.0,32,0.00,,OVC110,0.00,VWS V12.07,2013-05-08 00:33:00,
2013-05-07 19:34:00,66.8,37.6,29.90,SSW,195,0.0,0.0,34,0.00,,OVC110,0.00,VWS V12.07,2013-05-08 00:34:00,
2013-05-07 19:37:00,66.9,37.7,29.90,SSW,195,0.0,0.0,34,0.00,,OVC110,0.00,VWS V12.07,2013-05-08 00:37:00,
2013-05-07 19:38:00,66.9,39.8,29.90,SSW,195,0.0,0.0,37,0.00,,OVC110,0.00,VWS V12.07,2013-05-08 00:38:00,
2013-05-07 19:40:00,66.9,39.8,29.90,SSW,195,0.0,0.0,37,0.00,,OVC110,0.00,VWS V12.07,2013-05-08 00:40:00,
2013-05-07 19:42:00,66.9,39.8,29.90,SSW,195,0.0,0.0,37,0.00,,OVC110,0.00,VWS V12.07,2013-05-08 00:42:00,
2013-05-07 19:43:00,66.8,39.7,29.90,SSW,195,0.0,0.0,37,0.00,,OVC110,0.00,VWS V12.07,2013-05-08 00:43:00,
2013-05-07 19:44:00,66.8,39.7,29.89,SSW,195,0.0,0.0,37,0.00,,OVC110,0.00,VWS V12.07,2013-05-08 00:44:00,
2013-05-07 19:45:00,66.8,40.4,29.89,SSW,195,0.0,0.0,38,0.00,,OVC110,0.00,VWS V12.07,2013-05-08 00:45:00,
2013-05-07 19:47:00,66.8,40.4,29.89,SSW,195,0.0,0.0,38,0.00,,OVC110,0.00,VWS V12.07,2013-05-08 00:47:00,
2013-05-07 19:48:00,66.6,39.5,29.89,SSW,195,0.0,0.0,37,0.00,,OVC110,0.00,VWS V12.07,2013-05-08 00:48:00,
2013-05-07 19:49:00,66.6,39.5,29.89,SSW,195,0.0,0.0,37,0.00,,OVC110,0.00,VWS V12.07,2013-05-08 00:49:00,
2013-05-07 19:50:00,66.6,38.8,29.89,SSW,195,0.0,0.0,36,0.00,,OVC110,0.00,VWS V12.07,2013-05-08 00:50:00,
2013-05-07 19:52:00,66.4,37.9,29.89,SSW,195,0.0,0.0,35,0.00,,OVC110,0.00,VWS V12.07,2013-05-08 00:52:00,
2013-05-07 19:53:00,66.4,38.7,29.89,SSW,195,0.0,0.0,36,0.00,,OVC110,0.00,VWS V12.07,2013-05-08 00:53:00,
2013-05-07 19:54:00,66.4,38.7,29.89,SSW,195,0.0,0.0,36,0.00,,OVC110,0.00,VWS V12.07,2013-05-08 00:54:00,
2013-05-07 19:55:00,66.4,40.0,29.89,SSW,195,0.0,0.0,38,0.00,,OVC110,0.00,VWS V12.07,2013-05-08 00:55:00,
2013-05-07 19:58:00,66.3,41.9,29.89,SSW,195,0.0,0.0,41,0.00,,OVC110,0.00,VWS V12.07,2013-05-08 00:58:00,
2013-05-07 19:59:00,66.3,41.3,29.88,SSW,195,0.0,0.0,40,0.00,,OVC110,0.00,VWS V12.07,2013-05-08 00:59:00,
2013-05-07 20:00:00,66.3,40.6,29.88,SSW,195,0.0,0.0,39,0.00,,OVC110,0.00,VWS V12.07,2013-05-08 01:00:00,
2013-05-07 20:03:00,66.1,41.1,29.88,SSW,195,0.0,0.0,40,0.00,,OVC110,0.00,VWS V12.07,2013-05-08 01:03:00,
2013-05-07 20:04:00,66.0,41.0,29.88,SSW,195,0.0,0.0,40,0.00,,OVC110,0.00,VWS V12.07,2013-05-08 01:04:00,
2013-05-07 20:06:00,66.0,40.4,29.88,SSW,195,0.0,0.0,39,0.00,,OVC110,0.00,VWS V12.07,2013-05-08 01:06:00,
2013-05-07 20:08:00,65.6,38.7,29.88,SSW,195,0.0,0.0,37,0.00,,OVC110,0.00,VWS V12.07,2013-05-08 01:08:00,
2013-05-07 20:09:00,65.6,37.2,29.88,SSW,195,0.0,0.0,35,0.00,,OVC110,0.00,VWS V12.07,2013-05-08 01:09:00,
2013-05-07 20:11:00,65.5,41.2,29.88,SSW,195,2.0,3.0,41,0.00,,OVC110,0.00,VWS V12.07,2013-05-08 01:11:00,
2013-05-07 20:13:00,65.2,41.5,29.89,SSW,195,1.0,3.0,42,0.00,,OVC110,0.00,VWS V12.07,2013-05-08 01:13:00,
2013-05-07 20:14:00,65.0,42.0,29.89,SSW,195,2.0,3.0,43,0.00,,OVC110,0.00,VWS V12.07,2013-05-08 01:14:00,
2013-05-07 20:17:00,64.7,42.3,29.89,SSW,195,2.0,3.0,44,0.00,,OVC110,0.00,VWS V12.07,2013-05-08 01:17:00,
2013-05-07 20:19:00,64.3,41.9,29.89,SSW,195,0.0,2.0,44,0.00,,OVC110,0.00,VWS V12.07,2013-05-08 01:19:00,
2013-05-07 20:22:00,63.9,40.4,29.89,SSW,195,0.0,2.0,42,0.00,,OVC110,0.00,VWS V12.07,2013-05-08 01:22:00,
2013-05-07 20:24:00,63.7,40.2,29.89,SSW,195,0.0,2.0,42,0.00,,OVC110,0.00,VWS V12.07,2013-05-08 01:24:00,
2013-05-07 20:27:00,63.7,39.6,29.89,SSW,195,0.0,2.0,41,0.00,,OVC110,0.00,VWS V12.07,2013-05-08 01:27:00,
2013-05-07 20:29:00,63.7,39.6,29.89,SSW,195,0.0,0.0,41,0.00,,OVC110,0.00,VWS V12.07,2013-05-08 01:29:00,
2013-05-07 20:31:00,63.7,40.2,29.89,SSW,195,0.0,0.0,42,0.00,,OVC110,0.00,VWS V12.07,2013-05-08 01:31:00,
2013-05-07 20:32:00,63.7,39.6,29.89,SSW,195,0.0,0.0,41,0.00,,OVC110,0.00,VWS V12.07,2013-05-08 01:32:00,
2013-05-07 20:34:00,63.7,40.2,29.89,SSW,195,0.0,0.0,42,0.00,,OVC110,0.00,VWS V12.07,2013-05-08 01:34:00,
2013-05-07 20:35:00,63.7,40.2,29.89,SSW,195,0.0,0.0,42,0.00,,OVC110,0.00,VWS V12.07,2013-05-08 01:35:00,
2013-05-07 20:36:00,63.7,40.8,29.89,SSW,195,0.0,0.0,43,0.00,,OVC110,0.00,VWS V12.07,2013-05-08 01:36:00,
2013-05-07 20:38:00,63.5,40.6,29.89,SSW,195,0.0,0.0,43,0.00,,OVC110,0.00,VWS V12.07,2013-05-08 01:38:00,
2013-05-07 20:40:00,63.4,41.1,29.89,SSW,195,0.0,0.0,44,0.00,,OVC120,0.00,VWS V12.07,2013-05-08 01:40:00,
2013-05-07 20:41:00,63.4,41.1,29.89,SSW,195,0.0,0.0,44,0.00,,OVC120,0.00,VWS V12.07,2013-05-08 01:41:00,
2013-05-07 20:44:00,63.2,41.5,29.90,SSW,195,0.0,0.0,45,0.00,,OVC120,0.00,VWS V12.07,2013-05-08 01:44:00,
2013-05-07 20:45:00,63.1,41.4,29.90,SSW,195,0.0,1.0,45,0.00,,OVC120,0.00,VWS V12.07,2013-05-08 01:45:00,
2013-05-07 20:46:00,63.1,40.9,29.90,SSW,195,0.0,1.0,44,0.00,,OVC120,0.00,VWS V12.07,2013-05-08 01:46:00,
2013-05-07 20:49:00,62.9,41.3,29.90,SSW,195,0.0,1.0,45,0.00,,OVC120,0.00,VWS V12.07,2013-05-08 01:49:00,
2013-05-07 20:50:00,62.7,40.5,29.90,SSW,195,0.0,1.0,44,0.00,,OVC120,0.00,VWS V12.07,2013-05-08 01:50:00,
2013-05-07 20:51:00,62.7,40.5,29.90,SSW,195,0.0,1.0,44,0.00,,OVC120,0.00,VWS V12.07,2013-05-08 01:51:00,
2013-05-07 20:52:00,62.7,41.1,29.90,SSW,195,0.0,1.0,45,0.00,,OVC120,0.00,VWS V12.07,2013-05-08 01:52:00,
2013-05-07 20:54:00,62.6,41.0,29.90,SSW,195,0.0,1.0,45,0.00,,OVC120,0.00,VWS V12.07,2013-05-08 01:54:00,
2013-05-07 20:56:00,62.6,41.5,29.90,SSW,195,0.0,1.0,46,0.00,,OVC120,0.00,VWS V12.07,2013-05-08 01:56:00,
2013-05-07 20:57:00,62.6,41.0,29.90,SSW,195,0.0,1.0,45,0.00,,OVC120,0.00,VWS V12.07,2013-05-08 01:57:00,
2013-05-07 20:59:00,62.6,41.0,29.89,SSW,195,0.0,0.0,45,0.00,,OVC120,0.00,VWS V12.07,2013-05-08 01:59:00,
2013-05-07 21:01:00,62.4,40.8,29.89,SSW,195,0.0,0.0,45,0.00,,OVC120,0.00,VWS V12.07,2013-05-08 02:01:00,
2013-05-07 21:02:00,62.4,40.8,29.89,SSW,195,0.0,0.0,45,0.00,,OVC120,0.00,VWS V12.07,2013-05-08 02:02:00,
2013-05-07 21:05:00,62.4,40.8,29.89,SSW,195,0.0,0.0,45,0.00,,OVC120,0.00,VWS V12.07,2013-05-08 02:05:00,
2013-05-07 21:06:00,62.4,40.8,29.89,SSW,195,0.0,0.0,45,0.00,,OVC120,0.00,VWS V12.07,2013-05-08 02:06:00,
2013-05-07 21:07:00,62.4,41.4,29.89,SSW,195,0.0,0.0,46,0.00,,OVC120,0.00,VWS V12.07,2013-05-08 02:07:00,
2013-05-07 21:10:00,62.4,41.4,29.89,SSW,195,0.0,0.0,46,0.00,,OVC120,0.00,VWS V12.07,2013-05-08 02:10:00,
2013-05-07 21:11:00,62.3,41.3,29.89,SSW,195,0.0,0.0,46,0.00,,OVC120,0.00,VWS V12.07,2013-05-08 02:11:00,
2013-05-07 21:12:00,62.3,41.3,29.89,SSW,195,0.0,0.0,46,0.00,,OVC120,0.00,VWS V12.07,2013-05-08 02:12:00,
2013-05-07 21:13:00,62.3,41.8,29.89,SSW,195,0.0,1.0,47,0.00,,OVC120,0.00,VWS V12.07,2013-05-08 02:13:00,
2013-05-07 21:15:00,62.0,41.6,29.89,SSW,195,0.0,1.0,47,0.00,,OVC120,0.00,VWS V12.07,2013-05-08 02:15:00,
2013-05-07 21:16:00,61.8,41.9,29.89,SSW,195,0.0,1.0,48,0.00,,OVC120,0.00,VWS V12.07,2013-05-08 02:16:00,
2013-05-07 21:17:00,61.6,42.3,29.89,SSW,195,0.0,1.0,49,0.00,,OVC120,0.00,VWS V12.07,2013-05-08 02:17:00,
2013-05-07 21:18:00,61.6,42.3,29.89,SSW,195,0.0,1.0,49,0.00,,OVC120,0.00,VWS V12.07,2013-05-08 02:18:00,
2013-05-07 21:20:00,61.3,42.5,29.89,SSW,195,0.0,1.0,50,0.00,,OVC120,0.00,VWS V12.07,2013-05-08 02:20:00,
2013-05-07 21:21:00,61.2,42.4,29.89,SSW,195,0.0,1.0,50,0.00,,OVC120,0.00,VWS V12.07,2013-05-08 02:21:00,
2013-05-07 21:22:00,61.0,42.2,29.89,SSW,195,0.0,1.0,50,0.00,,OVC120,0.00,VWS V12.07,2013-05-08 02:22:00,
2013-05-07 21:23:00,60.9,43.7,29.89,SSW,195,0.0,1.0,53,0.00,,OVC120,0.00,VWS V12.07,2013-05-08 02:23:00,
2013-05-07 21:25:00,59.9,43.2,29.89,SSW,195,0.0,2.0,54,0.00,,OVC120,0.00,VWS V12.07,2013-05-08 02:25:00,
2013-05-07 21:27:00,59.6,43.4,29.89,SSW,195,0.0,2.0,55,0.00,,OVC120,0.00,VWS V12.07,2013-05-08 02:27:00,
2013-05-07 21:28:00,59.2,43.1,29.89,SSW,195,0.0,2.0,55,0.00,,OVC120,0.00,VWS V12.07,2013-05-08 02:28:00,
2013-05-07 21:31:00,58.6,43.0,29.90,SSW,195,0.0,2.0,56,0.00,,OVC120,0.00,VWS V12.07,2013-05-08 02:31:00,
2013-05-07 21:32:00,58.4,42.8,29.90,SSW,195,0.0,2.0,56,0.00,,OVC120,0.00,VWS V12.07,2013-05-08 02:32:00,
2013-05-07 21:33:00,58.3,42.7,29.90,SSW,195,0.0,2.0,56,0.00,,OVC120,0.00,VWS V12.07,2013-05-08 02:33:00,
2013-05-07 21:36:00,58.0,42.4,29.90,SSW,195,0.0,2.0,56,0.00,,OVC120,0.00,VWS V12.07,2013-05-08 02:36:00,
2013-05-07 21:37:00,57.8,42.2,29.90,SSW,195,0.0,2.0,56,0.00,,OVC120,0.00,VWS V12.07,2013-05-08 02:37:00,
2013-05-07 21:38:00,57.8,42.2,29.90,SSW,195,0.0,0.0,56,0.00,,OVC120,0.00,VWS V12.07,2013-05-08 02:38:00,
2013-05-07 21:39:00,57.8,42.2,29.90,SSW,195,0.0,0.0,56,0.00,,OVC120,0.00,VWS V12.07,2013-05-08 02:39:00,
2013-05-07 21:41:00,57.6,42.5,29.90,SSW,195,0.0,0.0,57,0.00,,OVC120,0.00,VWS V12.07,2013-05-08 02:41:00,
2013-05-07 21:42:00,57.6,42.5,29.90,SSW,195,0.0,1.0,57,0.00,,OVC120,0.00,VWS V12.07,2013-05-08 02:42:00,
2013-05-07 21:44:00,57.6,42.5,29.90,SSW,195,0.0,1.0,57,0.00,,OVC120,0.00,VWS V12.07,2013-05-08 02:44:00,
2013-05-07 21:46:00,57.6,42.5,29.90,SSW,195,0.0,2.0,57,0.00,,OVC120,0.00,VWS V12.07,2013-05-08 02:46:00,
2013-05-07 21:48:00,57.6,42.5,29.90,SSW,195,0.0,2.0,57,0.00,,OVC120,0.00,VWS V12.07,2013-05-08 02:48:00,
2013-05-07 21:49:00,57.6,42.5,29.90,SSW,195,0.0,2.0,57,0.00,,OVC120,0.00,VWS V12.07,2013-05-08 02:49:00,
2013-05-07 21:51:00,57.6,42.0,29.90,SSW,195,0.0,2.0,56,0.00,,OVC120,0.00,VWS V12.07,2013-05-08 02:51:00,
2013-05-07 21:53:00,57.6,43.0,29.90,SSW,195,0.0,2.0,58,0.00,,OVC120,0.00,VWS V12.07,2013-05-08 02:53:00,
2013-05-07 21:54:00,57.6,43.0,29.90,SSW,195,0.0,2.0,58,0.00,,OVC120,0.00,VWS V12.07,2013-05-08 02:54:00,
2013-05-07 21:55:00,57.8,43.1,29.90,SSW,195,0.0,2.0,58,0.00,,OVC120,0.00,VWS V12.07,2013-05-08 02:55:00,
2013-05-07 21:57:00,57.8,41.8,29.90,SSW,195,0.0,2.0,55,0.00,,OVC120,0.00,VWS V12.07,2013-05-08 02:57:00,
2013-05-07 21:58:00,57.8,41.8,29.90,SSW,195,0.0,0.0,55,0.00,,OVC120,0.00,VWS V12.07,2013-05-08 02:58:00,
2013-05-07 21:59:00,57.8,41.3,29.90,SSW,195,0.0,0.0,54,0.00,,OVC120,0.00,VWS V12.07,2013-05-08 02:59:00,
2013-05-07 22:00:00,57.8,41.3,29.90,SSW,195,0.0,0.0,54,0.00,,OVC120,0.00,VWS V12.07,2013-05-08 03:00:00,
2013-05-07 22:02:00,58.0,41.9,29.90,SSW,195,0.0,0.0,55,0.00,,OVC120,0.00,VWS V12.07,2013-05-08 03:02:00,
2013-05-07 22:05:00,58.0,41.9,29.90,SSW,195,0.0,0.0,55,0.00,,OVC120,0.00,VWS V12.07,2013-05-08 03:05:00,
2013-05-07 22:07:00,58.0,41.5,29.90,SSW,195,0.0,0.0,54,0.00,,OVC120,0.00,VWS V12.07,2013-05-08 03:07:00,
2013-05-07 22:10:00,58.1,41.6,29.90,SSW,195,0.0,0.0,54,0.00,,OVC120,0.00,VWS V12.07,2013-05-08 03:10:00,
2013-05-07 22:11:00,58.1,41.6,29.90,SSW,195,0.0,0.0,54,0.00,,OVC120,0.00,VWS V12.07,2013-05-08 03:11:00,
2013-05-07 22:13:00,58.3,41.8,29.90,SSW,195,0.0,1.0,54,0.00,,OVC120,0.00,VWS V12.07,2013-05-08 03:13:00,
2013-05-07 22:15:00,58.3,41.8,29.90,SSW,195,0.0,1.0,54,0.00,,OVC120,0.00,VWS V12.07,2013-05-08 03:15:00,
2013-05-07 22:16:00,58.4,41.8,29.90,SSW,195,0.0,1.0,54,0.00,,OVC120,0.00,VWS V12.07,2013-05-08 03:16:00,
2013-05-07 22:17:00,58.4,41.8,29.90,SSW,195,0.0,1.0,54,0.00,,OVC120,0.00,VWS V12.07,2013-05-08 03:17:00,
2013-05-07 22:19:00,58.4,41.8,29.90,SSW,195,0.0,0.0,54,0.00,,OVC120,0.00,VWS V12.07,2013-05-08 03:19:00,
2013-05-07 22:21:00,58.4,41.8,29.90,SSW,195,0.0,1.0,54,0.00,,OVC120,0.00,VWS V12.07,2013-05-08 03:21:00,
2013-05-07 22:22:00,58.4,41.8,29.90,SSW,195,0.0,1.0,54,0.00,,OVC120,0.00,VWS V12.07,2013-05-08 03:22:00,
2013-05-07 22:23:00,58.4,41.3,29.90,SSW,195,0.0,1.0,53,0.00,,OVC120,0.00,VWS V12.07,2013-05-08 03:23:00,
2013-05-07 22:24:00,58.6,41.5,29.90,SSW,195,0.0,1.0,53,0.00,,OVC120,0.00,VWS V12.07,2013-05-08 03:24:00,
2013-05-07 22:26:00,58.7,41.6,29.90,SSW,195,0.0,1.0,53,0.00,,OVC120,0.00,VWS V12.07,2013-05-08 03:26:00,
2013-05-07 22:27:00,58.7,41.1,29.90,SSW,195,0.0,1.0,52,0.00,,OVC120,0.00,VWS V12.07,2013-05-08 03:27:00,
2013-05-07 22:28:00,58.9,41.3,29.90,SSW,195,0.0,0.0,52,0.00,,OVC120,0.00,VWS V12.07,2013-05-08 03:28:00,
2013-05-07 22:29:00,59.0,41.4,29.90,SSW,195,0.0,0.0,52,0.00,,OVC120,0.00,VWS V12.07,2013-05-08 03:29:00,
2013-05-07 22:31:00,59.0,42.4,29.90,SSW,195,0.0,0.0,54,0.00,,OVC120,0.00,VWS V12.07,2013-05-08 03:31:00,
2013-05-07 22:32:00,59.2,42.1,29.90,SSW,195,0.0,0.0,53,0.00,,OVC120,0.00,VWS V12.07,2013-05-08 03:32:00,
2013-05-07 22:34:00,59.0,42.4,29.90,SSW,195,0.0,0.0,54,0.00,,OVC120,0.00,VWS V12.07,2013-05-08 03:34:00,
2013-05-07 22:36:00,58.7,42.6,29.90,SSW,195,0.0,0.0,55,0.00,,OVC120,0.00,VWS V12.07,2013-05-08 03:36:00,
2013-05-07 22:37:00,58.6,42.5,29.90,SSW,195,0.0,0.0,55,0.00,,OVC120,0.00,VWS V12.07,2013-05-08 03:37:00,
2013-05-07 22:39:00,58.3,42.2,29.90,SSW,195,0.0,0.0,55,0.00,,OVC110,0.00,VWS V12.07,2013-05-08 03:39:00,
2013-05-07 22:41:00,58.0,41.9,29.90,SSW,195,0.0,1.0,55,0.00,,OVC110,0.00,VWS V12.07,2013-05-08 03:41:00,
2013-05-07 22:42:00,58.0,41.9,29.90,SSW,195,0.0,1.0,55,0.00,,OVC110,0.00,VWS V12.07,2013-05-08 03:42:00,
2013-05-07 22:44:00,58.0,41.9,29.90,SSW,195,0.0,1.0,55,0.00,,OVC110,0.00,VWS V12.07,2013-05-08 03:44:00,
2013-05-07 22:46:00,57.8,42.2,29.90,SSW,195,0.0,1.0,56,0.00,,OVC110,0.00,VWS V12.07,2013-05-08 03:46:00,
2013-05-07 22:47:00,57.6,42.0,29.90,SSW,195,0.0,1.0,56,0.00,,OVC110,0.00,VWS V12.07,2013-05-08 03:47:00,
2013-05-07 22:48:00,57.6,42.5,29.90,SSW,195,0.0,1.0,57,0.00,,OVC110,0.00,VWS V12.07,2013-05-08 03:48:00,
2013-05-07 22:49:00,57.5,42.4,29.90,SSW,195,0.0,0.0,57,0.00,,OVC110,0.00,VWS V12.07,2013-05-08 03:49:00,
2013-05-07 22:52:00,57.0,41.9,29.90,SSW,195,0.0,0.0,57,0.00,,OVC110,0.00,VWS V12.07,2013-05-08 03:52:00,
2013-05-07 22:53:00,56.9,41.8,29.90,SSW,195,0.0,0.0,57,0.00,,OVC110,0.00,VWS V12.07,2013-05-08 03:53:00,
2013-05-07 22:54:00,56.7,42.1,29.90,SSW,195,0.0,0.0,58,0.00,,OVC110,0.00,VWS V12.07,2013-05-08 03:54:00,
2013-05-07 22:57:00,56.5,42.4,29.90,SSW,195,0.0,0.0,59,0.00,,OVC110,0.00,VWS V12.07,2013-05-08 03:57:00,
2013-05-07 22:58:00,56.3,42.2,29.90,SSW,195,0.0,0.0,59,0.00,,OVC110,0.00,VWS V12.07,2013-05-08 03:58:00,
2013-05-07 22:59:00,56.2,42.1,29.90,SSW,195,0.0,0.0,59,0.00,,OVC110,0.00,VWS V12.07,2013-05-08 03:59:00,
2013-05-07 23:00:00,56.2,42.1,29.90,SSW,195,0.0,0.0,59,0.00,,OVC110,0.00,VWS V12.07,2013-05-08 04:00:00,
2013-05-07 23:01:00,56.0,41.9,29.90,SSW,195,0.0,0.0,59,0.00,,OVC110,0.00,VWS V12.07,2013-05-08 04:01:00,
2013-05-07 23:06:00,55.4,42.2,29.90,SSW,195,0.0,0.0,61,0.00,,OVC110,0.00,VWS V12.07,2013-05-08 04:06:00,
2013-05-07 23:11:00,54.7,42.0,29.90,SSW,195,0.0,0.0,62,0.00,,OVC110,0.00,VWS V12.07,2013-05-08 04:11:00,
2013-05-07 23:12:00,54.5,41.8,29.90,SSW,195,0.0,0.0,62,0.00,,OVC110,0.00,VWS V12.07,2013-05-08 04:12:00,
2013-05-07 23:16:00,54.1,42.2,29.90,SSW,195,0.0,0.0,64,0.00,,OVC110,0.00,VWS V12.07,2013-05-08 04:16:00,
2013-05-07 23:17:00,53.9,42.0,29.90,SSW,195,0.0,0.0,64,0.00,,OVC110,0.00,VWS V12.07,2013-05-08 04:17:00,
2013-05-07 23:18:00,53.8,41.9,29.90,SSW,195,0.0,0.0,64,0.00,,OVC110,0.00,VWS V12.07,2013-05-08 04:18:00,
2013-05-07 23:21:00,53.5,41.6,29.90,SSW,195,0.0,0.0,64,0.00,,OVC110,0.00,VWS V12.07,2013-05-08 04:21:00,
2013-05-07 23:22:00,53.5,42.0,29.90,SSW,195,0.0,0.0,65,0.00,,OVC110,0.00,VWS V12.07,2013-05-08 04:22:00,
2013-05-07 23:23:00,53.5,41.6,29.90,SSW,195,0.0,0.0,64,0.00,,OVC110,0.00,VWS V12.07,2013-05-08 04:23:00,
2013-05-07 23:26:00,53.2,41.8,29.90,SSW,195,0.0,0.0,65,0.00,,OVC110,0.00,VWS V12.07,2013-05-08 04:26:00,
2013-05-07 23:27:00,53.2,41.8,29.90,SSW,195,1.0,1.0,65,0.00,,OVC110,0.00,VWS V12.07,2013-05-08 04:27:00,
2013-05-07 23:28:00,53.3,41.8,29.90,SSW,195,0.0,0.0,65,0.00,,OVC110,0.00,VWS V12.07,2013-05-08 04:28:00,
2013-05-07 23:31:00,52.9,41.9,29.90,SSW,195,1.0,2.0,66,0.00,,OVC110,0.00,VWS V12.07,2013-05-08 04:31:00,
2013-05-07 23:32:00,52.9,41.9,29.90,SSW,195,1.0,2.0,66,0.00,,OVC110,0.00,VWS V12.07,2013-05-08 04:32:00,
2013-05-07 23:33:00,52.9,41.9,29.90,SSW,195,2.0,2.0,66,0.00,,OVC110,0.00,VWS V12.07,2013-05-08 04:33:00,
2013-05-07 23:34:00,52.9,41.9,29.90,SSW,195,1.0,2.0,66,0.00,,OVC110,0.00,VWS V12.07,2013-05-08 04:34:00,
2013-05-07 23:37:00,53.1,42.1,29.90,SSW,195,1.0,2.0,66,0.00,,OVC110,0.00,VWS V12.07,2013-05-08 04:37:00,
2013-05-07 23:38:00,53.1,42.1,29.90,SSW,195,2.0,2.0,66,0.00,,OVC120,0.00,VWS V12.07,2013-05-08 04:38:00,
2013-05-07 23:39:00,53.1,42.1,29.90,SSW,195,1.0,2.0,66,0.00,,OVC120,0.00,VWS V12.07,2013-05-08 04:39:00,
2013-05-07 23:42:00,53.3,41.8,29.90,SSW,195,1.0,2.0,65,0.00,,OVC120,0.00,VWS V12.07,2013-05-08 04:42:00,
2013-05-07 23:43:00,53.3,42.2,29.90,SSW,195,1.0,2.0,66,0.00,,OVC120,0.00,VWS V12.07,2013-05-08 04:43:00,
2013-05-07 23:44:00,53.3,42.2,29.90,SSW,195,1.0,2.0,66,0.00,,OVC120,0.00,VWS V12.07,2013-05-08 04:44:00,
2013-05-07 23:48:00,53.6,42.5,29.90,SSW,195,0.0,2.0,66,0.00,,OVC120,0.00,VWS V12.07,2013-05-08 04:48:00,
2013-05-07 23:49:00,53.5,42.4,29.90,SSW,195,0.0,1.0,66,0.00,,OVC120,0.00,VWS V12.07,2013-05-08 04:49:00,
2013-05-07 23:53:00,53.5,42.0,29.90,SSW,195,0.0,2.0,65,0.00,,BKN120,0.00,VWS V12.07,2013-05-08 04:53:00,
2013-05-07 23:54:00,53.6,41.7,29.90,SSW,195,1.0,2.0,64,0.00,,BKN120,0.00,VWS V12.07,2013-05-08 04:54:00,
2013-05-07 23:55:00,53.6,41.7,29.90,SSW,195,1.0,2.0,64,0.00,,BKN120,0.00,VWS V12.07,2013-05-08 04:55:00,
2013-05-07 23:58:00,53.8,42.3,29.90,SSW,195,0.0,2.0,65,0.00,,BKN120,0.00,VWS V12.07,2013-05-08 04:58:00,
2013-05-07 23:59:00,53.8,42.3,29.90,SSW,195,0.0,2.0,65,0.00,,BKN120,0.00,VWS V12.07,2013-05-08 04:59:00,